Time,TemperatureF,DewpointF,PressureIn,WindDirection,WindDirectionDegrees,WindSpeedMPH,WindSpeedGustMPH,Humidity,HourlyPrecipIn,Conditions,Clouds,dailyrainin,SoftwareType,DateUTC
2013-03-07 00:00:00,42.1,12.1,29.94,SSE,158,7.6,7.6,29,0.00,,---,0.00,VWS V14.01,2013-03-07 05:00:00,
2013-03-07 00:05:00,41.7,11.8,29.94,SSE,158,7.6,7.6,29,0.00,,---,0.00,VWS V14.01,2013-03-07 05:05:00,
2013-03-07 00:10:00,41.7,11.8,29.94,SSE,158,7.6,7.6,29,0.00,,---,0.00,VWS V14.01,2013-03-07 05:10:00,
2013-03-07 00:15:00,41.5,12.4,29.94,SSE,158,7.6,7.6,30,0.00,,---,0.00,VWS V14.01,2013-03-07 05:15:00,
2013-03-07 00:20:00,41.4,12.3,29.94,SSE,158,7.6,7.6,30,0.00,,---,0.00,VWS V14.01,2013-03-07 05:20:00,
2013-03-07 00:25:00,41.2,12.1,29.94,SSE,158,7.6,7.6,30,0.00,,---,0.00,VWS V14.01,2013-03-07 05:25:00,
2013-03-07 00:30:00,41.2,12.1,29.94,SSE,158,7.6,7.6,30,0.00,,---,0.00,VWS V14.01,2013-03-07 05:30:00,
2013-03-07 00:35:00,41.0,12.0,29.94,SSE,158,7.6,7.6,30,0.00,,---,0.00,VWS V14.01,2013-03-07 05:35:00,
2013-03-07 00:40:00,40.8,12.5,29.91,SSE,158,7.6,7.6,31,0.00,,---,0.00,VWS V14.01,2013-03-07 05:40:00,
2013-03-07 00:41:00,40.8,12.5,29.91,SSE,158,7.6,7.6,31,0.00,,---,0.00,VWS V14.01,2013-03-07 05:41:00,
2013-03-07 00:45:00,40.6,12.4,29.91,SSE,158,7.6,7.6,31,0.00,,---,0.00,VWS V14.01,2013-03-07 05:45:00,
2013-03-07 00:46:00,40.6,12.4,29.91,SSE,158,7.6,7.6,31,0.00,,---,0.00,VWS V14.01,2013-03-07 05:46:00,
2013-03-07 00:50:00,40.6,13.1,29.91,SSE,158,7.6,7.6,32,0.00,,---,0.00,VWS V14.01,2013-03-07 05:50:00,
2013-03-07 00:51:00,40.6,13.1,29.91,SSE,158,7.6,7.6,32,0.00,,---,0.00,VWS V14.01,2013-03-07 05:51:00,
2013-03-07 00:55:00,40.5,12.9,29.94,SSE,158,7.6,7.6,32,0.00,,---,0.00,VWS V14.01,2013-03-07 05:55:00,
2013-03-07 00:56:00,40.3,12.8,29.94,SSE,158,7.6,7.6,32,0.00,,---,0.00,VWS V14.01,2013-03-07 05:56:00,
2013-03-07 01:00:00,40.1,12.6,29.94,SSE,158,7.6,7.6,32,0.00,,---,0.00,VWS V14.01,2013-03-07 06:00:00,
2013-03-07 01:01:00,40.1,12.6,29.94,SSE,158,7.6,7.6,32,0.00,,---,0.00,VWS V14.01,2013-03-07 06:01:00,
2013-03-07 01:05:00,40.1,12.6,29.94,SSE,158,7.6,7.6,32,0.00,,---,0.00,VWS V14.01,2013-03-07 06:05:00,
2013-03-07 01:06:00,40.1,12.6,29.94,SSE,158,7.6,7.6,32,0.00,,---,0.00,VWS V14.01,2013-03-07 06:06:00,
2013-03-07 01:11:00,40.1,12.6,29.94,SSE,158,7.6,7.6,32,0.00,,---,0.00,VWS V14.01,2013-03-07 06:11:00,
2013-03-07 01:16:00,39.9,13.2,29.94,SSE,158,7.6,7.6,33,0.00,,---,0.00,VWS V14.01,2013-03-07 06:16:00,
2013-03-07 01:21:00,39.9,13.2,29.94,SSE,158,7.6,7.6,33,0.00,,---,0.00,VWS V14.01,2013-03-07 06:21:00,
2013-03-07 01:26:00,39.7,13.0,29.94,SSE,158,7.6,7.6,33,0.00,,---,0.00,VWS V14.01,2013-03-07 06:26:00,
2013-03-07 01:27:00,39.7,13.0,29.94,SSE,158,7.6,7.6,33,0.00,,---,0.00,VWS V14.01,2013-03-07 06:27:00,
2013-03-07 01:31:00,39.7,13.0,29.94,SSE,158,7.6,7.6,33,0.00,,---,0.00,VWS V14.01,2013-03-07 06:31:00,
2013-03-07 01:32:00,39.7,13.0,29.94,SSE,158,7.6,7.6,33,0.00,,---,0.00,VWS V14.01,2013-03-07 06:32:00,
2013-03-07 01:36:00,39.6,12.9,29.94,SSE,158,7.6,7.6,33,0.00,,---,0.00,VWS V14.01,2013-03-07 06:36:00,
2013-03-07 01:37:00,39.6,12.9,29.94,SSE,158,7.6,7.6,33,0.00,,---,0.00,VWS V14.01,2013-03-07 06:37:00,
2013-03-07 01:41:00,39.4,13.4,29.97,SSE,158,7.6,7.6,34,0.00,,---,0.00,VWS V14.01,2013-03-07 06:41:00,
2013-03-07 01:42:00,39.4,13.4,29.97,SSE,158,7.6,7.6,34,0.00,,---,0.00,VWS V14.01,2013-03-07 06:42:00,
2013-03-07 01:46:00,39.4,13.4,29.97,SSE,158,7.6,7.6,34,0.00,,---,0.00,VWS V14.01,2013-03-07 06:46:00,
2013-03-07 01:47:00,39.2,13.2,29.97,SSE,158,7.6,7.6,34,0.00,,---,0.00,VWS V14.01,2013-03-07 06:47:00,
2013-03-07 01:51:00,39.2,13.2,29.97,SSE,158,7.6,7.6,34,0.00,,---,0.00,VWS V14.01,2013-03-07 06:51:00,
2013-03-07 01:52:00,39.2,13.2,29.97,SSE,158,7.6,7.6,34,0.00,,---,0.00,VWS V14.01,2013-03-07 06:52:00,
2013-03-07 01:56:00,38.8,13.5,29.94,SSE,158,7.6,7.6,35,0.00,,---,0.00,VWS V14.01,2013-03-07 06:56:00,
2013-03-07 01:57:00,38.8,13.5,29.94,SSE,158,7.6,7.6,35,0.00,,---,0.00,VWS V14.01,2013-03-07 06:57:00,
2013-03-07 02:01:00,38.8,13.5,29.94,SSE,158,7.6,7.6,35,0.00,,---,0.00,VWS V14.01,2013-03-07 07:01:00,
2013-03-07 02:02:00,38.8,13.5,29.94,SSE,158,7.6,7.6,35,0.00,,---,0.00,VWS V14.01,2013-03-07 07:02:00,
2013-03-07 02:06:00,38.7,13.4,29.94,SSE,158,7.6,7.6,35,0.00,,---,0.00,VWS V14.01,2013-03-07 07:06:00,
2013-03-07 02:07:00,38.7,13.4,29.94,SSE,158,7.6,7.6,35,0.00,,---,0.00,VWS V14.01,2013-03-07 07:07:00,
2013-03-07 02:12:00,38.7,14.0,29.94,SSE,158,7.6,7.6,36,0.00,,---,0.00,VWS V14.01,2013-03-07 07:12:00,
2013-03-07 02:17:00,38.5,13.9,29.94,SSE,158,7.6,7.6,36,0.00,,---,0.00,VWS V14.01,2013-03-07 07:17:00,
2013-03-07 02:22:00,38.3,14.3,29.94,SSE,158,7.6,7.6,37,0.00,,---,0.00,VWS V14.01,2013-03-07 07:22:00,
2013-03-07 02:27:00,38.1,14.2,29.94,SSE,158,7.6,7.6,37,0.00,,---,0.00,VWS V14.01,2013-03-07 07:27:00,
2013-03-07 02:28:00,38.1,14.2,29.94,SSE,158,7.6,7.6,37,0.00,,---,0.00,VWS V14.01,2013-03-07 07:28:00,
2013-03-07 02:32:00,38.1,14.8,29.94,SSE,158,7.6,7.6,38,0.00,,---,0.00,VWS V14.01,2013-03-07 07:32:00,
2013-03-07 02:33:00,37.9,14.6,29.94,SSE,158,7.6,7.6,38,0.00,,---,0.00,VWS V14.01,2013-03-07 07:33:00,
2013-03-07 02:37:00,37.9,15.2,29.94,SSE,158,7.6,7.6,39,0.00,,---,0.00,VWS V14.01,2013-03-07 07:37:00,
2013-03-07 02:38:00,37.9,15.2,29.97,SSE,158,7.6,7.6,39,0.00,,---,0.00,VWS V14.01,2013-03-07 07:38:00,
2013-03-07 02:42:00,37.9,15.2,29.97,SSE,158,7.6,7.6,39,0.00,,---,0.00,VWS V14.01,2013-03-07 07:42:00,
2013-03-07 02:43:00,37.8,15.0,29.97,SSE,158,7.6,7.6,39,0.00,,---,0.00,VWS V14.01,2013-03-07 07:43:00,
2013-03-07 02:47:00,37.8,15.0,29.97,SSE,158,7.6,7.6,39,0.00,,---,0.00,VWS V14.01,2013-03-07 07:47:00,
2013-03-07 02:48:00,37.8,15.0,29.97,SSE,158,7.6,7.6,39,0.00,,---,0.00,VWS V14.01,2013-03-07 07:48:00,
2013-03-07 02:52:00,37.8,15.0,29.97,SSE,158,7.6,7.6,39,0.00,,---,0.00,VWS V14.01,2013-03-07 07:52:00,
2013-03-07 02:53:00,37.8,15.0,29.97,SSE,158,7.6,7.6,39,0.00,,---,0.00,VWS V14.01,2013-03-07 07:53:00,
2013-03-07 02:57:00,37.6,14.9,29.97,SSE,158,7.6,7.6,39,0.00,,---,0.00,VWS V14.01,2013-03-07 07:57:00,
2013-03-07 02:58:00,37.6,14.9,29.97,SSE,158,7.6,7.6,39,0.00,,---,0.00,VWS V14.01,2013-03-07 07:58:00,
2013-03-07 03:02:00,37.6,14.9,29.97,SSE,158,7.6,7.6,39,0.00,,---,0.00,VWS V14.01,2013-03-07 08:02:00,
2013-03-07 03:03:00,37.6,14.9,29.97,SSE,158,7.6,7.6,39,0.00,,---,0.00,VWS V14.01,2013-03-07 08:03:00,
2013-03-07 03:07:00,37.4,14.7,29.97,SSE,158,7.6,7.6,39,0.00,,---,0.00,VWS V14.01,2013-03-07 08:07:00,
2013-03-07 03:08:00,37.4,14.7,29.97,SSE,158,7.6,7.6,39,0.00,,---,0.00,VWS V14.01,2013-03-07 08:08:00,
2013-03-07 03:09:00,37.4,14.7,29.97,SSE,158,7.6,7.6,39,0.00,,---,0.00,VWS V14.01,2013-03-07 08:09:00,
2013-03-07 03:12:00,37.4,14.7,29.97,SSE,158,7.6,7.6,39,0.00,,---,0.00,VWS V14.01,2013-03-07 08:12:00,
2013-03-07 03:13:00,37.4,14.7,29.97,SSE,158,7.6,7.6,39,0.00,,---,0.00,VWS V14.01,2013-03-07 08:13:00,
2013-03-07 03:14:00,37.4,14.7,29.97,SSE,158,7.6,7.6,39,0.00,,---,0.00,VWS V14.01,2013-03-07 08:14:00,
2013-03-07 03:17:00,37.4,14.7,29.97,SSE,158,7.6,7.6,39,0.00,,---,0.00,VWS V14.01,2013-03-07 08:17:00,
2013-03-07 03:18:00,37.4,14.7,29.97,SSE,158,7.6,7.6,39,0.00,,---,0.00,VWS V14.01,2013-03-07 08:18:00,
2013-03-07 03:19:00,37.4,14.7,29.97,SSE,158,7.6,7.6,39,0.00,,---,0.00,VWS V14.01,2013-03-07 08:19:00,
2013-03-07 03:22:00,37.2,15.1,29.97,SSE,158,7.6,7.6,40,0.00,,---,0.00,VWS V14.01,2013-03-07 08:22:00,
2013-03-07 03:23:00,37.2,15.1,29.97,SSE,158,7.6,7.6,40,0.00,,---,0.00,VWS V14.01,2013-03-07 08:23:00,
2013-03-07 03:24:00,37.2,15.1,29.97,SSE,158,7.6,7.6,40,0.00,,---,0.00,VWS V14.01,2013-03-07 08:24:00,
2013-03-07 03:27:00,37.0,15.0,29.97,SSE,158,7.6,7.6,40,0.00,,---,0.00,VWS V14.01,2013-03-07 08:27:00,
2013-03-07 03:28:00,37.0,15.0,29.97,SSE,158,7.6,7.6,40,0.00,,---,0.00,VWS V14.01,2013-03-07 08:28:00,
2013-03-07 03:29:00,37.0,15.0,29.97,SSE,158,7.6,7.6,40,0.00,,---,0.00,VWS V14.01,2013-03-07 08:29:00,
2013-03-07 03:33:00,36.9,14.8,29.97,SSE,158,7.6,7.6,40,0.00,,---,0.00,VWS V14.01,2013-03-07 08:33:00,
2013-03-07 03:34:00,36.9,14.8,29.97,SSE,158,7.6,7.6,40,0.00,,---,0.00,VWS V14.01,2013-03-07 08:34:00,
2013-03-07 03:38:00,36.9,14.8,29.97,SSE,158,7.6,7.6,40,0.00,,---,0.00,VWS V14.01,2013-03-07 08:38:00,
2013-03-07 03:39:00,36.7,14.6,29.97,SSE,158,7.6,7.6,40,0.00,,---,0.00,VWS V14.01,2013-03-07 08:39:00,
2013-03-07 03:40:00,36.7,14.6,29.97,SSE,158,7.6,7.6,40,0.00,,---,0.00,VWS V14.01,2013-03-07 08:40:00,
2013-03-07 03:43:00,36.7,14.6,29.97,SSE,158,7.6,7.6,40,0.00,,---,0.00,VWS V14.01,2013-03-07 08:43:00,
2013-03-07 03:44:00,36.7,14.6,29.97,SSE,158,7.6,7.6,40,0.00,,---,0.00,VWS V14.01,2013-03-07 08:44:00,
2013-03-07 03:45:00,36.7,14.6,29.97,SSE,158,7.6,7.6,40,0.00,,---,0.00,VWS V14.01,2013-03-07 08:45:00,
2013-03-07 03:48:00,36.7,14.6,29.97,SSE,158,7.6,7.6,40,0.00,,---,0.00,VWS V14.01,2013-03-07 08:48:00,
2013-03-07 03:49:00,36.7,14.6,29.97,SSE,158,7.6,7.6,40,0.00,,---,0.00,VWS V14.01,2013-03-07 08:49:00,
2013-03-07 03:50:00,36.5,14.5,29.97,SSE,158,7.6,7.6,40,0.00,,---,0.00,VWS V14.01,2013-03-07 08:50:00,
2013-03-07 03:53:00,36.5,14.5,29.97,SSE,158,7.6,7.6,40,0.00,,---,0.00,VWS V14.01,2013-03-07 08:53:00,
2013-03-07 03:54:00,36.5,14.5,29.97,SSE,158,7.6,7.6,40,0.00,,---,0.00,VWS V14.01,2013-03-07 08:54:00,
2013-03-07 03:55:00,36.5,14.5,29.97,SSE,158,7.6,7.6,40,0.00,,---,0.00,VWS V14.01,2013-03-07 08:55:00,
2013-03-07 03:58:00,36.3,14.3,29.97,SSE,158,7.6,7.6,40,0.00,,---,0.00,VWS V14.01,2013-03-07 08:58:00,
2013-03-07 03:59:00,36.3,14.3,29.97,SSE,158,7.6,7.6,40,0.00,,---,0.00,VWS V14.01,2013-03-07 08:59:00,
2013-03-07 04:00:00,36.3,14.3,29.97,SSE,158,7.6,7.6,40,0.00,,---,0.00,VWS V14.01,2013-03-07 09:00:00,
2013-03-07 04:03:00,36.3,14.3,29.97,SSE,158,7.6,7.6,40,0.00,,---,0.00,VWS V14.01,2013-03-07 09:03:00,
2013-03-07 04:04:00,36.3,14.3,29.97,SSE,158,7.6,7.6,40,0.00,,---,0.00,VWS V14.01,2013-03-07 09:04:00,
2013-03-07 04:05:00,36.3,14.3,29.97,SSE,158,7.6,7.6,40,0.00,,---,0.00,VWS V14.01,2013-03-07 09:05:00,
2013-03-07 04:08:00,36.3,14.9,29.97,SSE,158,7.6,7.6,41,0.00,,---,0.00,VWS V14.01,2013-03-07 09:08:00,
2013-03-07 04:09:00,36.3,14.9,29.97,SSE,158,7.6,7.6,41,0.00,,---,0.00,VWS V14.01,2013-03-07 09:09:00,
2013-03-07 04:10:00,36.3,14.9,29.97,SSE,158,7.6,7.6,41,0.00,,---,0.00,VWS V14.01,2013-03-07 09:10:00,
2013-03-07 04:13:00,36.1,14.7,29.97,SSE,158,7.6,7.6,41,0.00,,---,0.00,VWS V14.01,2013-03-07 09:13:00,
2013-03-07 04:14:00,36.1,14.7,29.97,SSE,158,7.6,7.6,41,0.00,,---,0.00,VWS V14.01,2013-03-07 09:14:00,
2013-03-07 04:15:00,36.1,14.7,29.97,SSE,158,7.6,7.6,41,0.00,,---,0.00,VWS V14.01,2013-03-07 09:15:00,
2013-03-07 04:18:00,36.1,14.7,29.97,SSE,158,7.6,7.6,41,0.00,,---,0.00,VWS V14.01,2013-03-07 09:18:00,
2013-03-07 04:19:00,36.1,14.7,29.97,SSE,158,7.6,7.6,41,0.00,,---,0.00,VWS V14.01,2013-03-07 09:19:00,
2013-03-07 04:20:00,36.1,14.7,29.97,SSE,158,7.6,7.6,41,0.00,,---,0.00,VWS V14.01,2013-03-07 09:20:00,
2013-03-07 04:23:00,36.1,14.7,30.00,SSE,158,7.6,7.6,41,0.00,,---,0.00,VWS V14.01,2013-03-07 09:23:00,
2013-03-07 04:24:00,36.1,14.7,30.00,SSE,158,7.6,7.6,41,0.00,,---,0.00,VWS V14.01,2013-03-07 09:24:00,
2013-03-07 04:25:00,36.1,14.7,30.00,SSE,158,7.6,7.6,41,0.00,,---,0.00,VWS V14.01,2013-03-07 09:25:00,
2013-03-07 04:28:00,36.1,14.7,30.00,SSE,158,7.6,7.6,41,0.00,,---,0.00,VWS V14.01,2013-03-07 09:28:00,
2013-03-07 04:29:00,36.1,14.7,30.00,SSE,158,7.6,7.6,41,0.00,,---,0.00,VWS V14.01,2013-03-07 09:29:00,
2013-03-07 04:30:00,36.1,14.7,30.00,SSE,158,7.6,7.6,41,0.00,,---,0.00,VWS V14.01,2013-03-07 09:30:00,
2013-03-07 04:33:00,36.1,14.7,30.00,SSE,158,7.6,7.6,41,0.00,,---,0.00,VWS V14.01,2013-03-07 09:33:00,
2013-03-07 04:34:00,36.1,14.7,30.00,SSE,158,7.6,7.6,41,0.00,,---,0.00,VWS V14.01,2013-03-07 09:34:00,
2013-03-07 04:35:00,36.0,14.6,30.00,SSE,158,7.6,7.6,41,0.00,,---,0.00,VWS V14.01,2013-03-07 09:35:00,
2013-03-07 04:38:00,36.0,14.6,30.00,SSE,158,7.6,7.6,41,0.00,,---,0.00,VWS V14.01,2013-03-07 09:38:00,
2013-03-07 04:39:00,36.0,14.6,30.00,SSE,158,7.6,7.6,41,0.00,,---,0.00,VWS V14.01,2013-03-07 09:39:00,
2013-03-07 04:41:00,36.0,14.6,30.00,SSE,158,7.6,7.6,41,0.00,,---,0.00,VWS V14.01,2013-03-07 09:41:00,
2013-03-07 04:43:00,36.0,14.6,30.00,SSE,158,7.6,7.6,41,0.00,,---,0.00,VWS V14.01,2013-03-07 09:43:00,
2013-03-07 04:44:00,35.8,14.4,30.00,SSE,158,7.6,7.6,41,0.00,,---,0.00,VWS V14.01,2013-03-07 09:44:00,
2013-03-07 04:46:00,35.8,14.4,30.00,SSE,158,7.6,7.6,41,0.00,,---,0.00,VWS V14.01,2013-03-07 09:46:00,
2013-03-07 04:48:00,35.8,14.4,30.00,SSE,158,7.6,7.6,41,0.00,,---,0.00,VWS V14.01,2013-03-07 09:48:00,
2013-03-07 04:49:00,35.8,14.4,30.00,SSE,158,7.6,7.6,41,0.00,,---,0.00,VWS V14.01,2013-03-07 09:49:00,
2013-03-07 04:51:00,35.8,14.4,30.00,SSE,158,7.6,7.6,41,0.00,,---,0.00,VWS V14.01,2013-03-07 09:51:00,
2013-03-07 04:53:00,36.0,14.6,30.00,SSE,158,7.6,7.6,41,0.00,,---,0.00,VWS V14.01,2013-03-07 09:53:00,
2013-03-07 04:54:00,36.0,14.6,30.00,SSE,158,7.6,7.6,41,0.00,,---,0.00,VWS V14.01,2013-03-07 09:54:00,
2013-03-07 04:56:00,36.0,14.6,30.00,SSE,158,7.6,7.6,41,0.00,,---,0.00,VWS V14.01,2013-03-07 09:56:00,
2013-03-07 04:58:00,35.8,14.4,30.00,SSE,158,7.6,7.6,41,0.00,,---,0.00,VWS V14.01,2013-03-07 09:58:00,
2013-03-07 04:59:00,35.8,14.4,30.00,SSE,158,7.6,7.6,41,0.00,,---,0.00,VWS V14.01,2013-03-07 09:59:00,
2013-03-07 05:01:00,35.8,14.4,30.00,SSE,158,7.6,7.6,41,0.00,,---,0.00,VWS V14.01,2013-03-07 10:01:00,
2013-03-07 05:03:00,35.8,14.4,30.00,SSE,158,7.6,7.6,41,0.00,,---,0.00,VWS V14.01,2013-03-07 10:03:00,
2013-03-07 05:05:00,35.8,14.4,30.00,SSE,158,7.6,7.6,41,0.00,,---,0.00,VWS V14.01,2013-03-07 10:05:00,
2013-03-07 05:06:00,35.8,14.4,30.00,SSE,158,7.6,7.6,41,0.00,,---,0.00,VWS V14.01,2013-03-07 10:06:00,
2013-03-07 05:08:00,35.6,14.2,30.00,SSE,158,7.6,7.6,41,0.00,,---,0.00,VWS V14.01,2013-03-07 10:08:00,
2013-03-07 05:10:00,35.6,14.2,30.00,SSE,158,7.6,7.6,41,0.00,,---,0.00,VWS V14.01,2013-03-07 10:10:00,
2013-03-07 05:11:00,35.6,14.2,30.00,SSE,158,7.6,7.6,41,0.00,,---,0.00,VWS V14.01,2013-03-07 10:11:00,
2013-03-07 05:13:00,35.6,14.2,30.00,SSE,158,7.6,7.6,41,0.00,,---,0.00,VWS V14.01,2013-03-07 10:13:00,
2013-03-07 05:15:00,35.6,14.2,30.00,SSE,158,7.6,7.6,41,0.00,,---,0.00,VWS V14.01,2013-03-07 10:15:00,
2013-03-07 05:16:00,35.6,14.8,30.00,SSE,158,7.6,7.6,42,0.00,,---,0.00,VWS V14.01,2013-03-07 10:16:00,
2013-03-07 05:18:00,35.4,14.6,30.00,SSE,158,7.6,7.6,42,0.00,,---,0.00,VWS V14.01,2013-03-07 10:18:00,
2013-03-07 05:20:00,35.4,14.6,30.00,SSE,158,7.6,7.6,42,0.00,,---,0.00,VWS V14.01,2013-03-07 10:20:00,
2013-03-07 05:21:00,35.4,14.6,30.00,SSE,158,7.6,7.6,42,0.00,,---,0.00,VWS V14.01,2013-03-07 10:21:00,
2013-03-07 05:23:00,35.4,14.6,30.00,SSE,158,7.6,7.6,42,0.00,,---,0.00,VWS V14.01,2013-03-07 10:23:00,
2013-03-07 05:25:00,35.4,14.6,30.00,SSE,158,7.6,7.6,42,0.00,,---,0.00,VWS V14.01,2013-03-07 10:25:00,
2013-03-07 05:26:00,35.4,14.6,30.00,SSE,158,7.6,7.6,42,0.00,,---,0.00,VWS V14.01,2013-03-07 10:26:00,
2013-03-07 05:29:00,35.4,14.6,30.00,SSE,158,7.6,7.6,42,0.00,,---,0.00,VWS V14.01,2013-03-07 10:29:00,
2013-03-07 05:30:00,35.4,14.6,30.00,SSE,158,7.6,7.6,42,0.00,,---,0.00,VWS V14.01,2013-03-07 10:30:00,
2013-03-07 05:31:00,35.2,14.5,30.00,SSE,158,7.6,7.6,42,0.00,,---,0.00,VWS V14.01,2013-03-07 10:31:00,
2013-03-07 05:34:00,35.2,14.5,30.00,SSE,158,7.6,7.6,42,0.00,,---,0.00,VWS V14.01,2013-03-07 10:34:00,
2013-03-07 05:36:00,35.2,14.5,30.00,SSE,158,7.6,7.6,42,0.00,,---,0.00,VWS V14.01,2013-03-07 10:36:00,
2013-03-07 05:39:00,35.1,14.3,30.00,SSE,158,7.6,7.6,42,0.00,,---,0.00,VWS V14.01,2013-03-07 10:39:00,
2013-03-07 05:41:00,35.1,14.8,30.00,SSE,158,7.6,7.6,43,0.00,,---,0.00,VWS V14.01,2013-03-07 10:41:00,
2013-03-07 05:44:00,35.1,14.8,30.00,SSE,158,7.6,7.6,43,0.00,,---,0.00,VWS V14.01,2013-03-07 10:44:00,
2013-03-07 05:46:00,35.1,14.8,30.00,SSE,158,7.6,7.6,43,0.00,,---,0.00,VWS V14.01,2013-03-07 10:46:00,
2013-03-07 05:49:00,35.1,14.8,30.00,SSE,158,7.6,7.6,43,0.00,,---,0.00,VWS V14.01,2013-03-07 10:49:00,
2013-03-07 05:51:00,35.1,14.8,30.00,SSE,158,7.6,7.6,43,0.00,,---,0.00,VWS V14.01,2013-03-07 10:51:00,
2013-03-07 05:54:00,35.1,14.8,30.00,SSE,158,7.6,7.6,43,0.00,,---,0.00,VWS V14.01,2013-03-07 10:54:00,
2013-03-07 05:56:00,35.1,14.8,30.00,SSE,158,7.6,7.6,43,0.00,,---,0.00,VWS V14.01,2013-03-07 10:56:00,
2013-03-07 05:59:00,34.9,14.7,30.00,SSE,158,7.6,7.6,43,0.00,,---,0.00,VWS V14.01,2013-03-07 10:59:00,
2013-03-07 06:01:00,34.9,14.7,30.00,SSE,158,7.6,7.6,43,0.00,,---,0.00,VWS V14.01,2013-03-07 11:01:00,
2013-03-07 06:05:00,34.9,14.7,30.00,SSE,158,7.6,7.6,43,0.00,,---,0.00,VWS V14.01,2013-03-07 11:05:00,
2013-03-07 06:06:00,34.9,14.7,30.00,SSE,158,7.6,7.6,43,0.00,,---,0.00,VWS V14.01,2013-03-07 11:06:00,
2013-03-07 06:07:00,34.9,14.7,30.00,SSE,158,7.6,7.6,43,0.00,,---,0.00,VWS V14.01,2013-03-07 11:07:00,
2013-03-07 06:10:00,34.7,14.5,30.00,SSE,158,7.6,7.6,43,0.00,,---,0.00,VWS V14.01,2013-03-07 11:10:00,
2013-03-07 06:11:00,34.7,14.5,30.00,SSE,158,7.6,7.6,43,0.00,,---,0.00,VWS V14.01,2013-03-07 11:11:00,
2013-03-07 06:12:00,34.7,14.5,30.00,SSE,158,7.6,7.6,43,0.00,,---,0.00,VWS V14.01,2013-03-07 11:12:00,
2013-03-07 06:15:00,34.5,14.3,30.00,SSE,158,7.6,7.6,43,0.00,,---,0.00,VWS V14.01,2013-03-07 11:15:00,
2013-03-07 06:16:00,34.5,14.9,30.00,SSE,158,7.6,7.6,44,0.00,,---,0.00,VWS V14.01,2013-03-07 11:16:00,
2013-03-07 06:17:00,34.5,14.3,30.00,SSE,158,7.6,7.6,43,0.00,,---,0.00,VWS V14.01,2013-03-07 11:17:00,
2013-03-07 06:20:00,34.5,14.9,30.00,SSE,158,7.6,7.6,44,0.00,,---,0.00,VWS V14.01,2013-03-07 11:20:00,
2013-03-07 06:21:00,34.5,14.9,30.00,SSE,158,7.6,7.6,44,0.00,,---,0.00,VWS V14.01,2013-03-07 11:21:00,
2013-03-07 06:22:00,34.5,14.9,30.00,SSE,158,7.6,7.6,44,0.00,,---,0.00,VWS V14.01,2013-03-07 11:22:00,
2013-03-07 06:25:00,34.3,14.7,30.03,SSE,158,7.6,7.6,44,0.00,,---,0.00,VWS V14.01,2013-03-07 11:25:00,
2013-03-07 06:26:00,34.3,14.7,30.03,SSE,158,7.6,7.6,44,0.00,,---,0.00,VWS V14.01,2013-03-07 11:26:00,
2013-03-07 06:27:00,34.3,14.7,30.03,SSE,158,7.6,7.6,44,0.00,,---,0.00,VWS V14.01,2013-03-07 11:27:00,
2013-03-07 06:30:00,34.3,14.7,30.03,SSE,158,7.6,7.6,44,0.00,,---,0.00,VWS V14.01,2013-03-07 11:30:00,
2013-03-07 06:32:00,34.3,14.7,30.03,SSE,158,7.6,7.6,44,0.00,,---,0.00,VWS V14.01,2013-03-07 11:32:00,
2013-03-07 06:36:00,34.2,14.5,30.03,SSE,158,7.6,7.6,44,0.00,,---,0.00,VWS V14.01,2013-03-07 11:36:00,
2013-03-07 06:37:00,34.3,14.7,30.03,SSE,158,7.6,7.6,44,0.00,,---,0.00,VWS V14.01,2013-03-07 11:37:00,
2013-03-07 06:41:00,34.2,14.5,30.06,SSE,158,7.6,7.6,44,0.00,,---,0.00,VWS V14.01,2013-03-07 11:41:00,
2013-03-07 06:42:00,34.2,14.5,30.06,SSE,158,7.6,7.6,44,0.00,,---,0.00,VWS V14.01,2013-03-07 11:42:00,
2013-03-07 06:46:00,34.2,15.1,30.06,SSE,158,7.6,7.6,45,0.00,,---,0.00,VWS V14.01,2013-03-07 11:46:00,
2013-03-07 06:47:00,34.2,15.1,30.06,SSE,158,7.6,7.6,45,0.00,,---,0.00,VWS V14.01,2013-03-07 11:47:00,
2013-03-07 06:51:00,34.3,15.2,30.06,SSE,158,7.6,7.6,45,0.00,,---,0.00,VWS V14.01,2013-03-07 11:51:00,
2013-03-07 06:52:00,34.5,15.4,30.06,SSE,158,7.6,7.6,45,0.00,,---,0.00,VWS V14.01,2013-03-07 11:52:00,
2013-03-07 06:53:00,34.5,15.4,30.06,SSE,158,7.6,7.6,45,0.00,,---,0.00,VWS V14.01,2013-03-07 11:53:00,
2013-03-07 06:56:00,34.9,15.2,30.06,SSE,158,7.6,7.6,44,0.00,,---,0.00,VWS V14.01,2013-03-07 11:56:00,
2013-03-07 06:57:00,34.9,15.2,30.06,SSE,158,7.6,7.6,44,0.00,,---,0.00,VWS V14.01,2013-03-07 11:57:00,
2013-03-07 06:58:00,35.1,15.4,30.06,SSE,158,7.6,7.6,44,0.00,,---,0.00,VWS V14.01,2013-03-07 11:58:00,
2013-03-07 07:01:00,35.2,15.0,30.06,SSE,158,7.6,7.6,43,0.00,,---,0.00,VWS V14.01,2013-03-07 12:01:00,
2013-03-07 07:02:00,35.4,15.2,30.06,SSE,158,7.6,7.6,43,0.00,,---,0.00,VWS V14.01,2013-03-07 12:02:00,
2013-03-07 07:03:00,35.4,15.2,30.06,SSE,158,7.6,7.6,43,0.00,,---,0.00,VWS V14.01,2013-03-07 12:03:00,
2013-03-07 07:06:00,35.6,14.8,30.06,SSE,158,7.6,7.6,42,0.00,,---,0.00,VWS V14.01,2013-03-07 12:06:00,
2013-03-07 07:07:00,35.8,14.9,30.06,SSE,158,7.6,7.6,42,0.00,,---,0.00,VWS V14.01,2013-03-07 12:07:00,
2013-03-07 07:08:00,35.8,14.9,30.06,SSE,158,7.6,7.6,42,0.00,,---,0.00,VWS V14.01,2013-03-07 12:08:00,
2013-03-07 07:11:00,36.1,14.7,30.03,SSE,158,7.6,7.6,41,0.00,,---,0.00,VWS V14.01,2013-03-07 12:11:00,
2013-03-07 07:12:00,36.3,14.9,30.03,SSE,158,7.6,7.6,41,0.00,,---,0.00,VWS V14.01,2013-03-07 12:12:00,
2013-03-07 07:13:00,36.3,14.9,30.03,SSE,158,7.6,7.6,41,0.00,,---,0.00,VWS V14.01,2013-03-07 12:13:00,
2013-03-07 07:16:00,36.9,15.4,30.03,SSE,158,7.6,7.6,41,0.00,,---,0.00,VWS V14.01,2013-03-07 12:16:00,
2013-03-07 07:17:00,36.9,14.8,30.03,SSE,158,7.6,7.6,40,0.00,,---,0.00,VWS V14.01,2013-03-07 12:17:00,
2013-03-07 07:18:00,37.0,15.0,30.03,SSE,158,7.6,7.6,40,0.00,,---,0.00,VWS V14.01,2013-03-07 12:18:00,
2013-03-07 07:21:00,37.2,15.1,30.03,SSE,158,7.6,7.6,40,0.00,,---,0.00,VWS V14.01,2013-03-07 12:21:00,
2013-03-07 07:22:00,37.4,14.7,30.03,SSE,158,7.6,7.6,39,0.00,,---,0.00,VWS V14.01,2013-03-07 12:22:00,
2013-03-07 07:23:00,37.4,14.7,30.06,SSE,158,7.6,7.6,39,0.00,,---,0.00,VWS V14.01,2013-03-07 12:23:00,
2013-03-07 07:26:00,37.6,14.9,30.06,SSE,158,7.6,7.6,39,0.00,,---,0.00,VWS V14.01,2013-03-07 12:26:00,
2013-03-07 07:27:00,37.6,14.9,30.06,SSE,158,7.6,7.6,39,0.00,,---,0.00,VWS V14.01,2013-03-07 12:27:00,
2013-03-07 07:28:00,37.6,14.9,30.06,SSE,158,7.6,7.6,39,0.00,,---,0.00,VWS V14.01,2013-03-07 12:28:00,
2013-03-07 07:31:00,38.1,14.8,30.06,SSE,158,7.6,7.6,38,0.00,,---,0.00,VWS V14.01,2013-03-07 12:31:00,
2013-03-07 07:32:00,38.1,14.8,30.06,SSE,158,7.6,7.6,38,0.00,,---,0.00,VWS V14.01,2013-03-07 12:32:00,
2013-03-07 07:33:00,38.1,14.2,30.06,SSE,158,7.6,7.6,37,0.00,,---,0.00,VWS V14.01,2013-03-07 12:33:00,
2013-03-07 07:36:00,38.3,13.7,30.06,SSE,158,7.6,7.6,36,0.00,,---,0.00,VWS V14.01,2013-03-07 12:36:00,
2013-03-07 07:37:00,38.3,13.7,30.06,SSE,158,7.6,7.6,36,0.00,,---,0.00,VWS V14.01,2013-03-07 12:37:00,
2013-03-07 07:38:00,38.5,13.9,30.06,SSE,158,7.6,7.6,36,0.00,,---,0.00,VWS V14.01,2013-03-07 12:38:00,
2013-03-07 07:41:00,38.5,13.9,30.06,SSE,158,7.6,7.6,36,0.00,,---,0.00,VWS V14.01,2013-03-07 12:41:00,
2013-03-07 07:42:00,38.5,13.9,30.06,SSE,158,7.6,7.6,36,0.00,,---,0.00,VWS V14.01,2013-03-07 12:42:00,
2013-03-07 07:43:00,38.5,13.9,30.06,SSE,158,7.6,7.6,36,0.00,,---,0.00,VWS V14.01,2013-03-07 12:43:00,
2013-03-07 07:46:00,38.7,14.0,30.06,SSE,158,7.6,7.6,36,0.00,,---,0.00,VWS V14.01,2013-03-07 12:46:00,
2013-03-07 07:47:00,38.8,14.2,30.06,SSE,158,7.6,7.6,36,0.00,,---,0.00,VWS V14.01,2013-03-07 12:47:00,
2013-03-07 07:48:00,39.0,13.7,30.06,SSE,158,7.6,7.6,35,0.00,,---,0.00,VWS V14.01,2013-03-07 12:48:00,
2013-03-07 07:51:00,39.2,13.2,30.06,SSE,158,7.6,7.6,34,0.00,,---,0.00,VWS V14.01,2013-03-07 12:51:00,
2013-03-07 07:52:00,39.2,13.2,30.06,SSE,158,7.6,7.6,34,0.00,,---,0.00,VWS V14.01,2013-03-07 12:52:00,
2013-03-07 07:53:00,39.2,13.2,30.03,SSE,158,7.6,7.6,34,0.00,,---,0.00,VWS V14.01,2013-03-07 12:53:00,
2013-03-07 07:57:00,39.6,13.5,30.03,SSE,158,7.6,7.6,34,0.00,,---,0.00,VWS V14.01,2013-03-07 12:57:00,
2013-03-07 07:58:00,39.6,13.5,30.03,SSE,158,7.6,7.6,34,0.00,,---,0.00,VWS V14.01,2013-03-07 12:58:00,
2013-03-07 08:02:00,39.9,13.8,30.03,SSE,158,7.6,7.6,34,0.00,,---,0.00,VWS V14.01,2013-03-07 13:02:00,
2013-03-07 08:03:00,40.3,13.5,30.03,SSE,158,7.6,7.6,33,0.00,,---,0.00,VWS V14.01,2013-03-07 13:03:00,
2013-03-07 08:07:00,40.6,13.8,30.03,SSE,158,7.6,7.6,33,0.00,,---,0.00,VWS V14.01,2013-03-07 13:07:00,
2013-03-07 08:08:00,40.6,13.8,30.06,SSE,158,7.6,7.6,33,0.00,,---,0.00,VWS V14.01,2013-03-07 13:08:00,
2013-03-07 08:12:00,41.0,13.4,30.06,SSE,158,7.6,7.6,32,0.00,,---,0.00,VWS V14.01,2013-03-07 13:12:00,
2013-03-07 08:13:00,41.2,13.6,30.06,SSE,158,7.6,7.6,32,0.00,,---,0.00,VWS V14.01,2013-03-07 13:13:00,
2013-03-07 08:17:00,41.5,13.2,30.06,SSE,158,7.6,7.6,31,0.00,,---,0.00,VWS V14.01,2013-03-07 13:17:00,
2013-03-07 08:18:00,41.7,13.3,30.06,SSE,158,7.6,7.6,31,0.00,,---,0.00,VWS V14.01,2013-03-07 13:18:00,
2013-03-07 08:22:00,41.5,12.4,30.06,SSE,158,7.6,7.6,30,0.00,,---,0.00,VWS V14.01,2013-03-07 13:22:00,
2013-03-07 08:23:00,41.5,12.4,30.06,SSE,158,7.6,7.6,30,0.00,,---,0.00,VWS V14.01,2013-03-07 13:23:00,
2013-03-07 08:27:00,41.5,12.4,30.06,SSE,158,7.6,7.6,30,0.00,,---,0.00,VWS V14.01,2013-03-07 13:27:00,
2013-03-07 08:28:00,42.4,13.2,30.06,SSE,158,7.6,7.6,30,0.00,,---,0.00,VWS V14.01,2013-03-07 13:28:00,
2013-03-07 08:32:00,43.3,13.2,30.06,SSE,158,7.6,7.6,29,0.00,,---,0.00,VWS V14.01,2013-03-07 13:32:00,
2013-03-07 08:33:00,43.3,13.2,30.06,SSE,158,7.6,7.6,29,0.00,,---,0.00,VWS V14.01,2013-03-07 13:33:00,
2013-03-07 08:37:00,43.5,13.4,30.06,SSE,158,7.6,7.6,29,0.00,,---,0.00,VWS V14.01,2013-03-07 13:37:00,
2013-03-07 08:38:00,43.5,13.4,30.06,SSE,158,7.6,7.6,29,0.00,,---,0.00,VWS V14.01,2013-03-07 13:38:00,
2013-03-07 08:43:00,44.2,14.0,30.06,SSE,158,7.6,7.6,29,0.00,,---,0.00,VWS V14.01,2013-03-07 13:43:00,
2013-03-07 08:44:00,44.2,14.0,30.06,SSE,158,7.6,7.6,29,0.00,,---,0.00,VWS V14.01,2013-03-07 13:44:00,
2013-03-07 08:48:00,45.5,14.3,30.06,SSE,158,7.6,7.6,28,0.00,,---,0.00,VWS V14.01,2013-03-07 13:48:00,
2013-03-07 08:49:00,45.5,14.3,30.06,SSE,158,7.6,7.6,28,0.00,,---,0.00,VWS V14.01,2013-03-07 13:49:00,
2013-03-07 08:53:00,45.7,14.5,30.09,SSE,158,7.6,7.6,28,0.00,,---,0.00,VWS V14.01,2013-03-07 13:53:00,
2013-03-07 08:54:00,45.7,14.5,30.09,SSE,158,7.6,7.6,28,0.00,,---,0.00,VWS V14.01,2013-03-07 13:54:00,
2013-03-07 08:58:00,46.8,14.6,30.09,SSE,158,7.6,7.6,27,0.00,,---,0.00,VWS V14.01,2013-03-07 13:58:00,
2013-03-07 08:59:00,46.4,14.2,30.09,SSE,158,7.6,7.6,27,0.00,,---,0.00,VWS V14.01,2013-03-07 13:59:00,
2013-03-07 09:03:00,47.3,15.0,30.09,SSE,158,7.6,7.6,27,0.00,,---,0.00,VWS V14.01,2013-03-07 14:03:00,
2013-03-07 09:04:00,47.3,12.4,30.09,SSE,158,7.6,7.6,24,0.00,,---,0.00,VWS V14.01,2013-03-07 14:04:00,
2013-03-07 09:08:00,47.7,12.7,30.06,SSE,158,7.6,7.6,24,0.00,,---,0.00,VWS V14.01,2013-03-07 14:08:00,
2013-03-07 09:09:00,47.7,12.7,30.06,SSE,158,7.6,7.6,24,0.00,,---,0.00,VWS V14.01,2013-03-07 14:09:00,
2013-03-07 09:13:00,48.6,13.4,30.06,SSE,158,7.6,7.6,24,0.00,,---,0.00,VWS V14.01,2013-03-07 14:13:00,
2013-03-07 09:14:00,48.6,13.4,30.06,SSE,158,7.6,7.6,24,0.00,,---,0.00,VWS V14.01,2013-03-07 14:14:00,
2013-03-07 09:18:00,48.7,10.6,30.06,SSE,158,7.6,7.6,21,0.00,,---,0.00,VWS V14.01,2013-03-07 14:18:00,
2013-03-07 09:19:00,48.6,10.4,30.06,SSE,158,7.6,7.6,21,0.00,,---,0.00,VWS V14.01,2013-03-07 14:19:00,
2013-03-07 09:23:00,48.6,10.4,30.06,SSE,158,7.6,7.6,21,0.00,,---,0.00,VWS V14.01,2013-03-07 14:23:00,
2013-03-07 09:24:00,48.6,10.4,30.06,SSE,158,7.6,7.6,21,0.00,,---,0.00,VWS V14.01,2013-03-07 14:24:00,
2013-03-07 09:28:00,49.5,11.2,30.06,SSE,158,7.6,7.6,21,0.00,,---,0.00,VWS V14.01,2013-03-07 14:28:00,
2013-03-07 09:29:00,49.5,11.2,30.06,SSE,158,7.6,7.6,21,0.00,,---,0.00,VWS V14.01,2013-03-07 14:29:00,
2013-03-07 09:33:00,49.3,11.0,30.06,SSE,158,7.6,7.6,21,0.00,,---,0.00,VWS V14.01,2013-03-07 14:33:00,
2013-03-07 09:34:00,49.3,11.0,30.06,SSE,158,7.6,7.6,21,0.00,,---,0.00,VWS V14.01,2013-03-07 14:34:00,
2013-03-07 09:39:00,49.6,11.3,30.06,SSE,158,7.6,7.6,21,0.00,,---,0.00,VWS V14.01,2013-03-07 14:39:00,
2013-03-07 09:44:00,50.7,12.2,30.06,SSE,158,7.6,7.6,21,0.00,,---,0.00,VWS V14.01,2013-03-07 14:44:00,
2013-03-07 09:49:00,50.9,12.4,30.06,SSE,158,7.6,7.6,21,0.00,,---,0.00,VWS V14.01,2013-03-07 14:49:00,
2013-03-07 09:54:00,50.9,12.4,30.06,SSE,158,7.6,7.6,21,0.00,,---,0.00,VWS V14.01,2013-03-07 14:54:00,
2013-03-07 09:59:00,51.8,13.1,30.06,SSE,158,7.6,7.6,21,0.00,,---,0.00,VWS V14.01,2013-03-07 14:59:00,
2013-03-07 10:04:00,52.0,9.8,30.06,SSE,158,7.6,7.6,18,0.00,,---,0.00,VWS V14.01,2013-03-07 15:04:00,
2013-03-07 10:09:00,52.7,10.4,30.06,SSE,158,7.6,7.6,18,0.00,,---,0.00,VWS V14.01,2013-03-07 15:09:00,
2013-03-07 10:14:00,53.1,10.7,30.06,SSE,158,7.6,7.6,18,0.00,,---,0.00,VWS V14.01,2013-03-07 15:14:00,
2013-03-07 10:19:00,53.6,11.1,30.06,SSE,158,7.6,7.6,18,0.00,,---,0.00,VWS V14.01,2013-03-07 15:19:00,
2013-03-07 10:20:00,53.6,11.1,30.06,SSE,158,7.6,7.6,18,0.00,,---,0.00,VWS V14.01,2013-03-07 15:20:00,
2013-03-07 10:24:00,52.9,10.6,30.03,SSE,158,7.6,7.6,18,0.00,,---,0.00,VWS V14.01,2013-03-07 15:24:00,
2013-03-07 10:25:00,52.9,10.6,30.03,SSE,158,7.6,7.6,18,0.00,,---,0.00,VWS V14.01,2013-03-07 15:25:00,
2013-03-07 10:29:00,54.0,11.4,30.03,SSE,158,7.6,7.6,18,0.00,,---,0.00,VWS V14.01,2013-03-07 15:29:00,
2013-03-07 10:30:00,54.0,11.4,30.03,SSE,158,7.6,7.6,18,0.00,,---,0.00,VWS V14.01,2013-03-07 15:30:00,
2013-03-07 10:34:00,54.1,11.6,30.03,SSE,158,7.6,7.6,18,0.00,,---,0.00,VWS V14.01,2013-03-07 15:34:00,
2013-03-07 10:35:00,54.1,11.6,30.03,SSE,158,7.6,7.6,18,0.00,,---,0.00,VWS V14.01,2013-03-07 15:35:00,
2013-03-07 10:39:00,53.4,11.0,30.06,SSE,158,7.6,7.6,18,0.00,,---,0.00,VWS V14.01,2013-03-07 15:39:00,
2013-03-07 10:40:00,53.6,11.1,30.06,SSE,158,7.6,7.6,18,0.00,,---,0.00,VWS V14.01,2013-03-07 15:40:00,
2013-03-07 10:44:00,55.8,11.6,30.06,SSE,158,7.6,7.6,17,0.00,,---,0.00,VWS V14.01,2013-03-07 15:44:00,
2013-03-07 10:45:00,55.8,11.6,30.06,SSE,158,7.6,7.6,17,0.00,,---,0.00,VWS V14.01,2013-03-07 15:45:00,
2013-03-07 10:50:00,54.5,11.9,30.06,SSE,158,7.6,7.6,18,0.00,,---,0.00,VWS V14.01,2013-03-07 15:50:00,
2013-03-07 10:55:00,56.3,12.1,30.06,SSE,158,7.6,7.6,17,0.00,,---,0.00,VWS V14.01,2013-03-07 15:55:00,
2013-03-07 11:00:00,55.2,12.5,30.06,SSE,158,7.6,7.6,18,0.00,,---,0.00,VWS V14.01,2013-03-07 16:00:00,
2013-03-07 11:05:00,55.8,11.6,30.06,SSE,158,7.6,7.6,17,0.00,,---,0.00,VWS V14.01,2013-03-07 16:05:00,
2013-03-07 11:10:00,55.8,11.6,30.06,SSE,158,7.6,7.6,17,0.00,,---,0.00,VWS V14.01,2013-03-07 16:10:00,
2013-03-07 11:15:00,56.8,12.5,30.06,SSE,158,7.6,7.6,17,0.00,,---,0.00,VWS V14.01,2013-03-07 16:15:00,
2013-03-07 11:20:00,56.3,12.1,30.06,SSE,158,7.6,7.6,17,0.00,,---,0.00,VWS V14.01,2013-03-07 16:20:00,
2013-03-07 11:25:00,56.1,11.9,30.06,SSE,158,7.6,7.6,17,0.00,,---,0.00,VWS V14.01,2013-03-07 16:25:00,
2013-03-07 11:26:00,56.1,11.9,30.06,SSE,158,7.6,7.6,17,0.00,,---,0.00,VWS V14.01,2013-03-07 16:26:00,
2013-03-07 11:30:00,57.0,12.7,30.06,SSE,158,7.6,7.6,17,0.00,,---,0.00,VWS V14.01,2013-03-07 16:30:00,
2013-03-07 11:31:00,57.0,12.7,30.06,SSE,158,7.6,7.6,17,0.00,,---,0.00,VWS V14.01,2013-03-07 16:31:00,
2013-03-07 11:35:00,57.0,12.7,30.06,SSE,158,7.6,7.6,17,0.00,,---,0.00,VWS V14.01,2013-03-07 16:35:00,
2013-03-07 11:36:00,57.4,12.9,30.06,SSE,158,7.6,7.6,17,0.00,,---,0.00,VWS V14.01,2013-03-07 16:36:00,
2013-03-07 11:40:00,57.7,13.2,30.03,SSE,158,7.6,7.6,17,0.00,,---,0.00,VWS V14.01,2013-03-07 16:40:00,
2013-03-07 11:41:00,57.7,13.2,30.03,SSE,158,7.6,7.6,17,0.00,,---,0.00,VWS V14.01,2013-03-07 16:41:00,
2013-03-07 11:45:00,56.8,12.5,30.03,SSE,158,7.6,7.6,17,0.00,,---,0.00,VWS V14.01,2013-03-07 16:45:00,
2013-03-07 11:46:00,56.8,12.5,30.03,SSE,158,7.6,7.6,17,0.00,,---,0.00,VWS V14.01,2013-03-07 16:46:00,
2013-03-07 11:50:00,57.6,13.1,30.03,SSE,158,7.6,7.6,17,0.00,,---,0.00,VWS V14.01,2013-03-07 16:50:00,
2013-03-07 11:51:00,57.6,13.1,30.03,SSE,158,7.6,7.6,17,0.00,,---,0.00,VWS V14.01,2013-03-07 16:51:00,
2013-03-07 11:56:00,57.6,13.1,30.03,SSE,158,7.6,7.6,17,0.00,,---,0.00,VWS V14.01,2013-03-07 16:56:00,
2013-03-07 11:57:00,57.6,13.1,30.03,SSE,158,7.6,7.6,17,0.00,,---,0.00,VWS V14.01,2013-03-07 16:57:00,
2013-03-07 12:01:00,56.7,12.4,30.03,SSE,158,7.6,7.6,17,0.00,,---,0.00,VWS V14.01,2013-03-07 17:01:00,
2013-03-07 12:02:00,56.8,12.5,30.03,SSE,158,7.6,7.6,17,0.00,,---,0.00,VWS V14.01,2013-03-07 17:02:00,
2013-03-07 12:06:00,56.7,12.4,30.03,SSE,158,7.6,7.6,17,0.00,,---,0.00,VWS V14.01,2013-03-07 17:06:00,
2013-03-07 12:07:00,56.5,12.2,30.03,SSE,158,7.6,7.6,17,0.00,,---,0.00,VWS V14.01,2013-03-07 17:07:00,
2013-03-07 12:11:00,56.7,12.4,30.03,SSE,158,7.6,7.6,17,0.00,,---,0.00,VWS V14.01,2013-03-07 17:11:00,
2013-03-07 12:12:00,57.0,12.7,30.03,SSE,158,7.6,7.6,17,0.00,,---,0.00,VWS V14.01,2013-03-07 17:12:00,
2013-03-07 12:16:00,56.8,12.5,30.03,SSE,158,7.6,7.6,17,0.00,,---,0.00,VWS V14.01,2013-03-07 17:16:00,
2013-03-07 12:17:00,56.8,12.5,30.03,SSE,158,7.6,7.6,17,0.00,,---,0.00,VWS V14.01,2013-03-07 17:17:00,
2013-03-07 12:21:00,57.4,12.9,30.03,SSE,158,7.6,7.6,17,0.00,,---,0.00,VWS V14.01,2013-03-07 17:21:00,
2013-03-07 12:22:00,57.2,12.8,30.03,SSE,158,7.6,7.6,17,0.00,,---,0.00,VWS V14.01,2013-03-07 17:22:00,
2013-03-07 12:27:00,58.1,13.5,30.03,SSE,158,7.6,7.6,17,0.00,,---,0.00,VWS V14.01,2013-03-07 17:27:00,
2013-03-07 12:32:00,58.8,14.1,30.03,SSE,158,7.6,7.6,17,0.00,,---,0.00,VWS V14.01,2013-03-07 17:32:00,
2013-03-07 12:37:00,58.6,14.0,30.03,SSE,158,7.6,7.6,17,0.00,,---,0.00,VWS V14.01,2013-03-07 17:37:00,
2013-03-07 12:42:00,57.9,13.4,30.00,SSE,158,7.6,7.6,17,0.00,,---,0.00,VWS V14.01,2013-03-07 17:42:00,
2013-03-07 12:47:00,58.6,14.0,30.00,SSE,158,7.6,7.6,17,0.00,,---,0.00,VWS V14.01,2013-03-07 17:47:00,
2013-03-07 12:52:00,60.1,15.1,30.00,SSE,158,7.6,7.6,17,0.00,,---,0.00,VWS V14.01,2013-03-07 17:52:00,
2013-03-07 12:53:00,59.4,14.6,30.00,SSE,158,7.6,7.6,17,0.00,,---,0.00,VWS V14.01,2013-03-07 17:53:00,
2013-03-07 12:57:00,60.6,15.6,30.00,SSE,158,7.6,7.6,17,0.00,,---,0.00,VWS V14.01,2013-03-07 17:57:00,
2013-03-07 12:58:00,60.1,15.1,30.00,SSE,158,7.6,7.6,17,0.00,,---,0.00,VWS V14.01,2013-03-07 17:58:00,
2013-03-07 13:02:00,58.5,13.8,30.00,SSE,158,7.6,7.6,17,0.00,,---,0.00,VWS V14.01,2013-03-07 18:02:00,
2013-03-07 13:03:00,58.5,13.8,30.00,SSE,158,7.6,7.6,17,0.00,,---,0.00,VWS V14.01,2013-03-07 18:03:00,
2013-03-07 13:07:00,59.2,14.4,30.00,SSE,158,7.6,7.6,17,0.00,,---,0.00,VWS V14.01,2013-03-07 18:07:00,
2013-03-07 13:08:00,59.0,14.3,30.00,SSE,158,7.6,7.6,17,0.00,,---,0.00,VWS V14.01,2013-03-07 18:08:00,
2013-03-07 13:13:00,58.3,13.7,30.00,SSE,158,7.6,7.6,17,0.00,,---,0.00,VWS V14.01,2013-03-07 18:13:00,
2013-03-07 13:18:00,58.5,13.8,30.00,SSE,158,7.6,7.6,17,0.00,,---,0.00,VWS V14.01,2013-03-07 18:18:00,
2013-03-07 13:23:00,58.1,13.5,30.00,SSE,158,7.6,7.6,17,0.00,,---,0.00,VWS V14.01,2013-03-07 18:23:00,
2013-03-07 13:28:00,57.9,13.4,30.00,SSE,158,7.6,7.6,17,0.00,,---,0.00,VWS V14.01,2013-03-07 18:28:00,
2013-03-07 13:33:00,58.5,13.8,30.00,SSE,158,7.6,7.6,17,0.00,,---,0.00,VWS V14.01,2013-03-07 18:33:00,
2013-03-07 13:38:00,58.8,14.1,29.97,SSE,158,7.6,7.6,17,0.00,,---,0.00,VWS V14.01,2013-03-07 18:38:00,
2013-03-07 13:43:00,60.3,15.3,29.97,SSE,158,7.6,7.6,17,0.00,,---,0.00,VWS V14.01,2013-03-07 18:43:00,
2013-03-07 13:44:00,60.3,15.3,29.97,SSE,158,7.6,7.6,17,0.00,,---,0.00,VWS V14.01,2013-03-07 18:44:00,
2013-03-07 13:48:00,61.0,14.5,29.97,SSE,158,7.6,7.6,16,0.00,,---,0.00,VWS V14.01,2013-03-07 18:48:00,
2013-03-07 13:50:00,60.8,14.4,29.97,SSE,158,7.6,7.6,16,0.00,,---,0.00,VWS V14.01,2013-03-07 18:50:00,
2013-03-07 13:53:00,60.1,15.1,29.97,SSE,158,7.6,7.6,17,0.00,,---,0.00,VWS V14.01,2013-03-07 18:53:00,
2013-03-07 13:55:00,60.3,15.3,29.97,SSE,158,7.6,7.6,17,0.00,,---,0.00,VWS V14.01,2013-03-07 18:55:00,
2013-03-07 13:58:00,60.4,15.4,29.97,SSE,158,7.6,7.6,17,0.00,,---,0.00,VWS V14.01,2013-03-07 18:58:00,
2013-03-07 13:59:00,61.0,14.5,29.97,SSE,158,7.6,7.6,16,0.00,,---,0.00,VWS V14.01,2013-03-07 18:59:00,
2013-03-07 14:00:00,61.0,14.5,29.97,SSE,158,7.6,7.6,16,0.00,,---,0.00,VWS V14.01,2013-03-07 19:00:00,
2013-03-07 14:03:00,61.7,15.1,29.97,SSE,158,7.6,7.6,16,0.00,,---,0.00,VWS V14.01,2013-03-07 19:03:00,
2013-03-07 14:04:00,61.7,15.1,29.97,SSE,158,7.6,7.6,16,0.00,,---,0.00,VWS V14.01,2013-03-07 19:04:00,
2013-03-07 14:05:00,61.7,15.1,29.97,SSE,158,7.6,7.6,16,0.00,,---,0.00,VWS V14.01,2013-03-07 19:05:00,
2013-03-07 14:08:00,61.2,14.6,29.97,SSE,158,7.6,7.6,16,0.00,,---,0.00,VWS V14.01,2013-03-07 19:08:00,
2013-03-07 14:09:00,61.2,14.6,29.97,SSE,158,7.6,7.6,16,0.00,,---,0.00,VWS V14.01,2013-03-07 19:09:00,
2013-03-07 14:11:00,60.6,15.6,29.97,SSE,158,7.6,7.6,17,0.00,,---,0.00,VWS V14.01,2013-03-07 19:11:00,
2013-03-07 14:13:00,60.4,15.4,29.97,SSE,158,7.6,7.6,17,0.00,,---,0.00,VWS V14.01,2013-03-07 19:13:00,
2013-03-07 14:14:00,61.2,14.6,29.97,SSE,158,7.6,7.6,16,0.00,,---,0.00,VWS V14.01,2013-03-07 19:14:00,
2013-03-07 14:16:00,61.0,14.5,29.97,SSE,158,7.6,7.6,16,0.00,,---,0.00,VWS V14.01,2013-03-07 19:16:00,
2013-03-07 14:18:00,61.5,14.9,29.97,SSE,158,7.6,7.6,16,0.00,,---,0.00,VWS V14.01,2013-03-07 19:18:00,
2013-03-07 14:19:00,61.5,14.9,29.97,SSE,158,7.6,7.6,16,0.00,,---,0.00,VWS V14.01,2013-03-07 19:19:00,
2013-03-07 14:21:00,60.8,14.4,29.97,SSE,158,7.6,7.6,16,0.00,,---,0.00,VWS V14.01,2013-03-07 19:21:00,
2013-03-07 14:24:00,60.1,15.1,29.97,SSE,158,7.6,7.6,17,0.00,,---,0.00,VWS V14.01,2013-03-07 19:24:00,
2013-03-07 14:26:00,60.1,15.1,29.97,SSE,158,7.6,7.6,17,0.00,,---,0.00,VWS V14.01,2013-03-07 19:26:00,
2013-03-07 14:29:00,59.7,14.9,29.97,SSE,158,7.6,7.6,17,0.00,,---,0.00,VWS V14.01,2013-03-07 19:29:00,
2013-03-07 14:32:00,59.7,14.9,29.97,SSE,158,7.6,7.6,17,0.00,,---,0.00,VWS V14.01,2013-03-07 19:32:00,
2013-03-07 14:34:00,60.4,15.4,29.97,SSE,158,7.6,7.6,17,0.00,,---,0.00,VWS V14.01,2013-03-07 19:34:00,
2013-03-07 14:37:00,60.1,15.1,29.97,SSE,158,7.6,7.6,17,0.00,,---,0.00,VWS V14.01,2013-03-07 19:37:00,
2013-03-07 14:39:00,60.6,15.6,29.97,SSE,158,7.6,7.6,17,0.00,,---,0.00,VWS V14.01,2013-03-07 19:39:00,
2013-03-07 14:42:00,60.6,15.6,29.97,SSE,158,7.6,7.6,17,0.00,,---,0.00,VWS V14.01,2013-03-07 19:42:00,
2013-03-07 14:44:00,61.0,14.5,29.97,SSE,158,7.6,7.6,16,0.00,,---,0.00,VWS V14.01,2013-03-07 19:44:00,
2013-03-07 14:47:00,60.3,15.3,29.97,SSE,158,7.6,7.6,17,0.00,,---,0.00,VWS V14.01,2013-03-07 19:47:00,
2013-03-07 14:49:00,60.4,15.4,29.97,SSE,158,7.6,7.6,17,0.00,,---,0.00,VWS V14.01,2013-03-07 19:49:00,
2013-03-07 14:52:00,61.0,14.5,29.97,SSE,158,7.6,7.6,16,0.00,,---,0.00,VWS V14.01,2013-03-07 19:52:00,
2013-03-07 14:54:00,61.5,14.9,29.97,SSE,158,7.6,7.6,16,0.00,,---,0.00,VWS V14.01,2013-03-07 19:54:00,
2013-03-07 14:55:00,61.3,14.8,29.97,SSE,158,7.6,7.6,16,0.00,,---,0.00,VWS V14.01,2013-03-07 19:55:00,
2013-03-07 14:57:00,60.8,14.4,29.97,SSE,158,7.6,7.6,16,0.00,,---,0.00,VWS V14.01,2013-03-07 19:57:00,
2013-03-07 14:59:00,61.3,14.8,29.97,SSE,158,7.6,7.6,16,0.00,,---,0.00,VWS V14.01,2013-03-07 19:59:00,
2013-03-07 15:00:00,61.3,14.8,29.97,SSE,158,7.6,7.6,16,0.00,,---,0.00,VWS V14.01,2013-03-07 20:00:00,
2013-03-07 15:02:00,60.8,14.4,29.97,SSE,158,7.6,7.6,16,0.00,,---,0.00,VWS V14.01,2013-03-07 20:02:00,
2013-03-07 15:04:00,60.4,15.4,29.97,SSE,158,7.6,7.6,17,0.00,,---,0.00,VWS V14.01,2013-03-07 20:04:00,
2013-03-07 15:05:00,60.4,15.4,29.97,SSE,158,7.6,7.6,17,0.00,,---,0.00,VWS V14.01,2013-03-07 20:05:00,
2013-03-07 15:07:00,59.7,14.9,29.97,SSE,158,7.6,7.6,17,0.00,,---,0.00,VWS V14.01,2013-03-07 20:07:00,
2013-03-07 15:09:00,59.7,14.9,29.97,SSE,158,7.6,7.6,17,0.00,,---,0.00,VWS V14.01,2013-03-07 20:09:00,
2013-03-07 15:10:00,59.7,14.9,29.97,SSE,158,7.6,7.6,17,0.00,,---,0.00,VWS V14.01,2013-03-07 20:10:00,
2013-03-07 15:13:00,60.3,15.3,29.97,SSE,158,7.6,7.6,17,0.00,,---,0.00,VWS V14.01,2013-03-07 20:13:00,
2013-03-07 15:15:00,61.9,15.2,29.97,SSE,158,7.6,7.6,16,0.00,,---,0.00,VWS V14.01,2013-03-07 20:15:00,
2013-03-07 15:18:00,61.0,14.5,29.97,SSE,158,7.6,7.6,16,0.00,,---,0.00,VWS V14.01,2013-03-07 20:18:00,
2013-03-07 15:20:00,61.3,14.8,29.97,SSE,158,7.6,7.6,16,0.00,,---,0.00,VWS V14.01,2013-03-07 20:20:00,
2013-03-07 15:23:00,60.4,15.4,29.97,SSE,158,7.6,7.6,17,0.00,,---,0.00,VWS V14.01,2013-03-07 20:23:00,
2013-03-07 15:25:00,60.8,14.4,29.97,SSE,158,7.6,7.6,16,0.00,,---,0.00,VWS V14.01,2013-03-07 20:25:00,
2013-03-07 15:28:00,60.8,14.4,29.97,SSE,158,7.6,7.6,16,0.00,,---,0.00,VWS V14.01,2013-03-07 20:28:00,
2013-03-07 15:30:00,60.6,15.6,29.97,SSE,158,7.6,7.6,17,0.00,,---,0.00,VWS V14.01,2013-03-07 20:30:00,
2013-03-07 15:33:00,60.4,15.4,29.97,SSE,158,7.6,7.6,17,0.00,,---,0.00,VWS V14.01,2013-03-07 20:33:00,
2013-03-07 15:35:00,60.8,14.4,29.97,SSE,158,7.6,7.6,16,0.00,,---,0.00,VWS V14.01,2013-03-07 20:35:00,
2013-03-07 15:38:00,60.8,14.4,29.97,SSE,158,7.6,7.6,16,0.00,,---,0.00,VWS V14.01,2013-03-07 20:38:00,
2013-03-07 15:40:00,61.3,14.8,29.97,SSE,158,7.6,7.6,16,0.00,,---,0.00,VWS V14.01,2013-03-07 20:40:00,
2013-03-07 15:43:00,61.2,14.6,29.97,SSE,158,7.6,7.6,16,0.00,,---,0.00,VWS V14.01,2013-03-07 20:43:00,
2013-03-07 15:45:00,60.8,14.4,29.97,SSE,158,7.6,7.6,16,0.00,,---,0.00,VWS V14.01,2013-03-07 20:45:00,
2013-03-07 15:48:00,60.6,15.6,29.97,SSE,158,7.6,7.6,17,0.00,,---,0.00,VWS V14.01,2013-03-07 20:48:00,
2013-03-07 15:50:00,61.7,15.1,29.97,SSE,158,7.6,7.6,16,0.00,,---,0.00,VWS V14.01,2013-03-07 20:50:00,
2013-03-07 15:53:00,61.2,14.6,29.97,SSE,158,7.6,7.6,16,0.00,,---,0.00,VWS V14.01,2013-03-07 20:53:00,
2013-03-07 15:55:00,60.8,14.4,29.97,SSE,158,7.6,7.6,16,0.00,,---,0.00,VWS V14.01,2013-03-07 20:55:00,
2013-03-07 15:58:00,60.8,14.4,29.97,SSE,158,7.6,7.6,16,0.00,,---,0.00,VWS V14.01,2013-03-07 20:58:00,
2013-03-07 16:00:00,60.6,15.6,29.97,SSE,158,7.6,7.6,17,0.00,,---,0.00,VWS V14.01,2013-03-07 21:00:00,
2013-03-07 16:01:00,60.6,15.6,29.97,SSE,158,7.6,7.6,17,0.00,,---,0.00,VWS V14.01,2013-03-07 21:01:00,
2013-03-07 16:03:00,60.3,15.3,29.97,SSE,158,7.6,7.6,17,0.00,,---,0.00,VWS V14.01,2013-03-07 21:03:00,
2013-03-07 16:05:00,60.3,15.3,29.97,SSE,158,7.6,7.6,17,0.00,,---,0.00,VWS V14.01,2013-03-07 21:05:00,
2013-03-07 16:06:00,60.4,15.4,29.97,SSE,158,7.6,7.6,17,0.00,,---,0.00,VWS V14.01,2013-03-07 21:06:00,
2013-03-07 16:09:00,60.3,15.3,29.97,SSE,158,7.6,7.6,17,0.00,,---,0.00,VWS V14.01,2013-03-07 21:09:00,
2013-03-07 16:10:00,60.3,15.3,29.97,SSE,158,7.6,7.6,17,0.00,,---,0.00,VWS V14.01,2013-03-07 21:10:00,
2013-03-07 16:11:00,60.3,15.3,29.97,SSE,158,7.6,7.6,17,0.00,,---,0.00,VWS V14.01,2013-03-07 21:11:00,
2013-03-07 16:14:00,60.6,15.6,29.97,SSE,158,7.6,7.6,17,0.00,,---,0.00,VWS V14.01,2013-03-07 21:14:00,
2013-03-07 16:15:00,60.6,15.6,29.97,SSE,158,7.6,7.6,17,0.00,,---,0.00,VWS V14.01,2013-03-07 21:15:00,
2013-03-07 16:16:00,61.0,14.5,29.97,SSE,158,7.6,7.6,16,0.00,,---,0.00,VWS V14.01,2013-03-07 21:16:00,
2013-03-07 16:19:00,61.0,14.5,29.97,SSE,158,7.6,7.6,16,0.00,,---,0.00,VWS V14.01,2013-03-07 21:19:00,
2013-03-07 16:21:00,61.0,14.5,29.97,SSE,158,7.6,7.6,16,0.00,,---,0.00,VWS V14.01,2013-03-07 21:21:00,
2013-03-07 16:24:00,60.8,14.4,29.97,SSE,158,7.6,7.6,16,0.00,,---,0.00,VWS V14.01,2013-03-07 21:24:00,
2013-03-07 16:26:00,61.0,14.5,29.97,SSE,158,7.6,7.6,16,0.00,,---,0.00,VWS V14.01,2013-03-07 21:26:00,
2013-03-07 16:29:00,60.4,15.4,29.97,SSE,158,7.6,7.6,17,0.00,,---,0.00,VWS V14.01,2013-03-07 21:29:00,
2013-03-07 16:31:00,60.8,14.4,29.97,SSE,158,7.6,7.6,16,0.00,,---,0.00,VWS V14.01,2013-03-07 21:31:00,
2013-03-07 16:34:00,60.6,15.6,29.97,SSE,158,7.6,7.6,17,0.00,,---,0.00,VWS V14.01,2013-03-07 21:34:00,
2013-03-07 16:36:00,61.0,14.5,29.97,SSE,158,7.6,7.6,16,0.00,,---,0.00,VWS V14.01,2013-03-07 21:36:00,
2013-03-07 16:39:00,60.1,15.1,29.97,SSE,158,7.6,7.6,17,0.00,,---,0.00,VWS V14.01,2013-03-07 21:39:00,
2013-03-07 16:41:00,59.9,15.0,29.97,SSE,158,7.6,7.6,17,0.00,,---,0.00,VWS V14.01,2013-03-07 21:41:00,
2013-03-07 16:44:00,59.9,15.0,29.97,SSE,158,7.6,7.6,17,0.00,,---,0.00,VWS V14.01,2013-03-07 21:44:00,
2013-03-07 16:46:00,60.6,15.6,29.97,SSE,158,7.6,7.6,17,0.00,,---,0.00,VWS V14.01,2013-03-07 21:46:00,
2013-03-07 16:50:00,60.8,14.4,29.97,SSE,158,7.6,7.6,16,0.00,,---,0.00,VWS V14.01,2013-03-07 21:50:00,
2013-03-07 16:51:00,61.0,14.5,29.97,SSE,158,7.6,7.6,16,0.00,,---,0.00,VWS V14.01,2013-03-07 21:51:00,
2013-03-07 16:55:00,61.7,15.1,29.97,SSE,158,7.6,7.6,16,0.00,,---,0.00,VWS V14.01,2013-03-07 21:55:00,
2013-03-07 16:56:00,61.0,14.5,29.97,SSE,158,7.6,7.6,16,0.00,,---,0.00,VWS V14.01,2013-03-07 21:56:00,
2013-03-07 17:00:00,60.1,15.1,29.97,SSE,158,7.6,7.6,17,0.00,,---,0.00,VWS V14.01,2013-03-07 22:00:00,
2013-03-07 17:01:00,60.3,15.3,29.97,SSE,158,7.6,7.6,17,0.00,,---,0.00,VWS V14.01,2013-03-07 22:01:00,
2013-03-07 17:05:00,60.4,15.4,29.97,SSE,158,7.6,7.6,17,0.00,,---,0.00,VWS V14.01,2013-03-07 22:05:00,
2013-03-07 17:06:00,60.4,15.4,29.97,SSE,158,7.6,7.6,17,0.00,,---,0.00,VWS V14.01,2013-03-07 22:06:00,
2013-03-07 17:07:00,60.4,15.4,29.97,SSE,158,7.6,7.6,17,0.00,,---,0.00,VWS V14.01,2013-03-07 22:07:00,
2013-03-07 17:10:00,60.3,15.3,29.97,SSE,158,7.6,7.6,17,0.00,,---,0.00,VWS V14.01,2013-03-07 22:10:00,
2013-03-07 17:12:00,60.3,15.3,29.97,SSE,158,7.6,7.6,17,0.00,,---,0.00,VWS V14.01,2013-03-07 22:12:00,
2013-03-07 17:15:00,60.3,15.3,29.97,SSE,158,7.6,7.6,17,0.00,,---,0.00,VWS V14.01,2013-03-07 22:15:00,
2013-03-07 17:17:00,60.3,15.3,29.97,SSE,158,7.6,7.6,17,0.00,,---,0.00,VWS V14.01,2013-03-07 22:17:00,
2013-03-07 17:20:00,60.1,15.1,29.97,SSE,158,7.6,7.6,17,0.00,,---,0.00,VWS V14.01,2013-03-07 22:20:00,
2013-03-07 17:22:00,60.3,15.3,29.97,SSE,158,7.6,7.6,17,0.00,,---,0.00,VWS V14.01,2013-03-07 22:22:00,
2013-03-07 17:25:00,59.5,14.7,29.97,SSE,158,7.6,7.6,17,0.00,,---,0.00,VWS V14.01,2013-03-07 22:25:00,
2013-03-07 17:27:00,59.4,14.6,29.97,SSE,158,7.6,7.6,17,0.00,,---,0.00,VWS V14.01,2013-03-07 22:27:00,
2013-03-07 17:31:00,59.5,14.7,29.97,SSE,158,7.6,7.6,17,0.00,,---,0.00,VWS V14.01,2013-03-07 22:31:00,
2013-03-07 17:32:00,59.7,14.9,29.97,SSE,158,7.6,7.6,17,0.00,,---,0.00,VWS V14.01,2013-03-07 22:32:00,
2013-03-07 17:36:00,60.1,15.1,29.97,SSE,158,7.6,7.6,17,0.00,,---,0.00,VWS V14.01,2013-03-07 22:36:00,
2013-03-07 17:37:00,59.5,14.7,29.97,SSE,158,7.6,7.6,17,0.00,,---,0.00,VWS V14.01,2013-03-07 22:37:00,
2013-03-07 17:41:00,59.4,14.6,29.97,SSE,158,7.6,7.6,17,0.00,,---,0.00,VWS V14.01,2013-03-07 22:41:00,
2013-03-07 17:42:00,59.2,14.4,29.97,SSE,158,7.6,7.6,17,0.00,,---,0.00,VWS V14.01,2013-03-07 22:42:00,
2013-03-07 17:43:00,59.2,14.4,29.97,SSE,158,7.6,7.6,17,0.00,,---,0.00,VWS V14.01,2013-03-07 22:43:00,
2013-03-07 17:46:00,59.9,15.0,29.97,SSE,158,7.6,7.6,17,0.00,,---,0.00,VWS V14.01,2013-03-07 22:46:00,
2013-03-07 17:47:00,59.5,14.7,29.97,SSE,158,7.6,7.6,17,0.00,,---,0.00,VWS V14.01,2013-03-07 22:47:00,
2013-03-07 17:48:00,59.5,14.7,29.97,SSE,158,7.6,7.6,17,0.00,,---,0.00,VWS V14.01,2013-03-07 22:48:00,
2013-03-07 17:51:00,59.4,14.6,29.97,SSE,158,7.6,7.6,17,0.00,,---,0.00,VWS V14.01,2013-03-07 22:51:00,
2013-03-07 17:52:00,58.8,14.1,29.97,SSE,158,7.6,7.6,17,0.00,,---,0.00,VWS V14.01,2013-03-07 22:52:00,
2013-03-07 17:53:00,59.2,14.4,29.97,SSE,158,7.6,7.6,17,0.00,,---,0.00,VWS V14.01,2013-03-07 22:53:00,
2013-03-07 17:56:00,58.8,14.1,29.97,SSE,158,7.6,7.6,17,0.00,,---,0.00,VWS V14.01,2013-03-07 22:56:00,
2013-03-07 17:57:00,58.5,13.8,29.97,SSE,158,7.6,7.6,17,0.00,,---,0.00,VWS V14.01,2013-03-07 22:57:00,
2013-03-07 17:58:00,58.5,13.8,29.97,SSE,158,7.6,7.6,17,0.00,,---,0.00,VWS V14.01,2013-03-07 22:58:00,
2013-03-07 18:01:00,58.1,13.5,29.97,SSE,158,7.6,7.6,17,0.00,,---,0.00,VWS V14.01,2013-03-07 23:01:00,
2013-03-07 18:02:00,57.7,13.2,29.97,SSE,158,7.6,7.6,17,0.00,,---,0.00,VWS V14.01,2013-03-07 23:02:00,
2013-03-07 18:03:00,57.7,13.2,29.97,SSE,158,7.6,7.6,17,0.00,,---,0.00,VWS V14.01,2013-03-07 23:03:00,
2013-03-07 18:06:00,57.6,13.1,29.97,SSE,158,7.6,7.6,17,0.00,,---,0.00,VWS V14.01,2013-03-07 23:06:00,
2013-03-07 18:08:00,57.6,13.1,29.97,SSE,158,7.6,7.6,17,0.00,,---,0.00,VWS V14.01,2013-03-07 23:08:00,
2013-03-07 18:11:00,56.8,12.5,30.00,SSE,158,7.6,7.6,17,0.00,,---,0.00,VWS V14.01,2013-03-07 23:11:00,
2013-03-07 18:13:00,56.5,12.2,30.00,SSE,158,7.6,7.6,17,0.00,,---,0.00,VWS V14.01,2013-03-07 23:13:00,
2013-03-07 18:16:00,56.1,11.9,30.00,SSE,158,7.6,7.6,17,0.00,,---,0.00,VWS V14.01,2013-03-07 23:16:00,
2013-03-07 18:18:00,55.9,11.8,30.00,SSE,158,7.6,7.6,17,0.00,,---,0.00,VWS V14.01,2013-03-07 23:18:00,
2013-03-07 18:21:00,55.6,11.5,30.00,SSE,158,7.6,7.6,17,0.00,,---,0.00,VWS V14.01,2013-03-07 23:21:00,
2013-03-07 18:23:00,55.4,11.3,30.00,SSE,158,7.6,7.6,17,0.00,,---,0.00,VWS V14.01,2013-03-07 23:23:00,
2013-03-07 18:26:00,55.2,12.5,30.00,SSE,158,7.6,7.6,18,0.00,,---,0.00,VWS V14.01,2013-03-07 23:26:00,
2013-03-07 18:28:00,55.0,12.3,30.00,SSE,158,7.6,7.6,18,0.00,,---,0.00,VWS V14.01,2013-03-07 23:28:00,
2013-03-07 18:31:00,54.7,12.0,30.00,SSE,158,7.6,7.6,18,0.00,,---,0.00,VWS V14.01,2013-03-07 23:31:00,
2013-03-07 18:33:00,54.5,11.9,30.00,SSE,158,7.6,7.6,18,0.00,,---,0.00,VWS V14.01,2013-03-07 23:33:00,
2013-03-07 18:36:00,54.3,11.7,30.00,SSE,158,7.6,7.6,18,0.00,,---,0.00,VWS V14.01,2013-03-07 23:36:00,
2013-03-07 18:38:00,54.0,11.4,29.97,SSE,158,7.6,7.6,18,0.00,,---,0.00,VWS V14.01,2013-03-07 23:38:00,
2013-03-07 18:41:00,53.8,11.3,29.97,SSE,158,7.6,7.6,18,0.00,,---,0.00,VWS V14.01,2013-03-07 23:41:00,
2013-03-07 18:43:00,53.6,11.1,29.97,SSE,158,7.6,7.6,18,0.00,,---,0.00,VWS V14.01,2013-03-07 23:43:00,
2013-03-07 18:44:00,53.6,11.1,29.97,SSE,158,7.6,7.6,18,0.00,,---,0.00,VWS V14.01,2013-03-07 23:44:00,
2013-03-07 18:46:00,53.4,11.0,29.97,SSE,158,7.6,7.6,18,0.00,,---,0.00,VWS V14.01,2013-03-07 23:46:00,
2013-03-07 18:48:00,53.2,14.3,29.97,SSE,158,7.6,7.6,21,0.00,,---,0.00,VWS V14.01,2013-03-07 23:48:00,
2013-03-07 18:49:00,53.2,14.3,29.97,SSE,158,7.6,7.6,21,0.00,,---,0.00,VWS V14.01,2013-03-07 23:49:00,
2013-03-07 18:51:00,53.1,14.2,29.97,SSE,158,7.6,7.6,21,0.00,,---,0.00,VWS V14.01,2013-03-07 23:51:00,
2013-03-07 18:53:00,53.1,14.2,30.00,SSE,158,7.6,7.6,21,0.00,,---,0.00,VWS V14.01,2013-03-07 23:53:00,
2013-03-07 18:54:00,52.9,14.0,30.00,SSE,158,7.6,7.6,21,0.00,,---,0.00,VWS V14.01,2013-03-07 23:54:00,
2013-03-07 18:56:00,52.7,13.9,30.00,SSE,158,7.6,7.6,21,0.00,,---,0.00,VWS V14.01,2013-03-07 23:56:00,
2013-03-07 18:58:00,52.7,13.9,30.00,SSE,158,7.6,7.6,21,0.00,,---,0.00,VWS V14.01,2013-03-07 23:58:00,
2013-03-07 18:59:00,52.5,13.7,30.00,SSE,158,7.6,7.6,21,0.00,,---,0.00,VWS V14.01,2013-03-07 23:59:00,
2013-03-07 19:01:00,52.5,13.7,30.00,SSE,158,7.6,7.6,21,0.00,,---,0.00,VWS V14.01,2013-03-08 00:01:00,
2013-03-07 19:03:00,52.5,13.7,30.00,SSE,158,7.6,7.6,21,0.00,,---,0.00,VWS V14.01,2013-03-08 00:03:00,
2013-03-07 19:04:00,52.5,13.7,30.00,SSE,158,7.6,7.6,21,0.00,,---,0.00,VWS V14.01,2013-03-08 00:04:00,
2013-03-07 19:06:00,52.2,13.4,30.00,SSE,158,7.6,7.6,21,0.00,,---,0.00,VWS V14.01,2013-03-08 00:06:00,
2013-03-07 19:08:00,52.2,13.4,30.00,SSE,158,7.6,7.6,21,0.00,,---,0.00,VWS V14.01,2013-03-08 00:08:00,
2013-03-07 19:09:00,52.2,13.4,30.00,SSE,158,7.6,7.6,21,0.00,,---,0.00,VWS V14.01,2013-03-08 00:09:00,
2013-03-07 19:11:00,52.0,13.3,30.00,SSE,158,7.6,7.6,21,0.00,,---,0.00,VWS V14.01,2013-03-08 00:11:00,
2013-03-07 19:13:00,51.8,13.1,30.00,SSE,158,7.6,7.6,21,0.00,,---,0.00,VWS V14.01,2013-03-08 00:13:00,
2013-03-07 19:14:00,51.8,13.1,30.00,SSE,158,7.6,7.6,21,0.00,,---,0.00,VWS V14.01,2013-03-08 00:14:00,
2013-03-07 19:16:00,51.6,13.0,30.00,SSE,158,7.6,7.6,21,0.00,,---,0.00,VWS V14.01,2013-03-08 00:16:00,
2013-03-07 19:18:00,51.6,13.0,30.00,SSE,158,7.6,7.6,21,0.00,,---,0.00,VWS V14.01,2013-03-08 00:18:00,
2013-03-07 19:19:00,51.6,13.0,30.00,SSE,158,7.6,7.6,21,0.00,,---,0.00,VWS V14.01,2013-03-08 00:19:00,
2013-03-07 19:21:00,51.4,12.8,30.00,SSE,158,7.6,7.6,21,0.00,,---,0.00,VWS V14.01,2013-03-08 00:21:00,
2013-03-07 19:23:00,51.4,12.8,30.00,SSE,158,7.6,7.6,21,0.00,,---,0.00,VWS V14.01,2013-03-08 00:23:00,
2013-03-07 19:24:00,51.3,12.7,30.00,SSE,158,7.6,7.6,21,0.00,,---,0.00,VWS V14.01,2013-03-08 00:24:00,
2013-03-07 19:26:00,51.3,12.7,30.00,SSE,158,7.6,7.6,21,0.00,,---,0.00,VWS V14.01,2013-03-08 00:26:00,
2013-03-07 19:29:00,51.1,12.5,30.00,SSE,158,7.6,7.6,21,0.00,,---,0.00,VWS V14.01,2013-03-08 00:29:00,
2013-03-07 19:32:00,50.9,12.4,30.00,SSE,158,7.6,7.6,21,0.00,,---,0.00,VWS V14.01,2013-03-08 00:32:00,
2013-03-07 19:34:00,50.7,12.2,30.00,SSE,158,7.6,7.6,21,0.00,,---,0.00,VWS V14.01,2013-03-08 00:34:00,
2013-03-07 19:35:00,50.7,12.2,30.00,SSE,158,7.6,7.6,21,0.00,,---,0.00,VWS V14.01,2013-03-08 00:35:00,
2013-03-07 19:37:00,50.7,15.3,30.00,SSE,158,7.6,7.6,24,0.00,,---,0.00,VWS V14.01,2013-03-08 00:37:00,
2013-03-07 19:39:00,50.5,15.1,30.00,SSE,158,7.6,7.6,24,0.00,,---,0.00,VWS V14.01,2013-03-08 00:39:00,
2013-03-07 19:40:00,50.5,15.1,30.00,SSE,158,7.6,7.6,24,0.00,,---,0.00,VWS V14.01,2013-03-08 00:40:00,
2013-03-07 19:42:00,50.5,15.1,30.00,SSE,158,7.6,7.6,24,0.00,,---,0.00,VWS V14.01,2013-03-08 00:42:00,
2013-03-07 19:44:00,50.4,14.9,30.00,SSE,158,7.6,7.6,24,0.00,,---,0.00,VWS V14.01,2013-03-08 00:44:00,
2013-03-07 19:45:00,50.4,14.9,30.00,SSE,158,7.6,7.6,24,0.00,,---,0.00,VWS V14.01,2013-03-08 00:45:00,
2013-03-07 19:47:00,50.4,14.9,30.00,SSE,158,7.6,7.6,24,0.00,,---,0.00,VWS V14.01,2013-03-08 00:47:00,
2013-03-07 19:49:00,50.2,14.8,30.00,SSE,158,7.6,7.6,24,0.00,,---,0.00,VWS V14.01,2013-03-08 00:49:00,
2013-03-07 19:51:00,50.2,14.8,30.00,SSE,158,7.6,7.6,24,0.00,,---,0.00,VWS V14.01,2013-03-08 00:51:00,
2013-03-07 19:52:00,50.2,14.8,30.00,SSE,158,7.6,7.6,24,0.00,,---,0.00,VWS V14.01,2013-03-08 00:52:00,
2013-03-07 19:54:00,50.0,14.6,30.03,SSE,158,7.6,7.6,24,0.00,,---,0.00,VWS V14.01,2013-03-08 00:54:00,
2013-03-07 19:56:00,50.0,14.6,30.03,SSE,158,7.6,7.6,24,0.00,,---,0.00,VWS V14.01,2013-03-08 00:56:00,
2013-03-07 19:57:00,49.8,14.5,30.03,SSE,158,7.6,7.6,24,0.00,,---,0.00,VWS V14.01,2013-03-08 00:57:00,
2013-03-07 20:00:00,49.8,14.5,30.03,SSE,158,7.6,7.6,24,0.00,,---,0.00,VWS V14.01,2013-03-08 01:00:00,
2013-03-07 20:01:00,49.6,14.3,30.03,SSE,158,7.6,7.6,24,0.00,,---,0.00,VWS V14.01,2013-03-08 01:01:00,
2013-03-07 20:02:00,49.6,14.3,30.03,SSE,158,7.6,7.6,24,0.00,,---,0.00,VWS V14.01,2013-03-08 01:02:00,
2013-03-07 20:05:00,49.5,16.0,30.03,SSE,158,7.6,7.6,26,0.00,,---,0.00,VWS V14.01,2013-03-08 01:05:00,
2013-03-07 20:06:00,49.3,15.9,30.03,SSE,158,7.6,7.6,26,0.00,,---,0.00,VWS V14.01,2013-03-08 01:06:00,
2013-03-07 20:07:00,49.3,15.9,30.03,SSE,158,7.6,7.6,26,0.00,,---,0.00,VWS V14.01,2013-03-08 01:07:00,
2013-03-07 20:10:00,49.3,15.9,30.03,SSE,158,7.6,7.6,26,0.00,,---,0.00,VWS V14.01,2013-03-08 01:10:00,
2013-03-07 20:11:00,49.1,15.7,30.03,SSE,158,7.6,7.6,26,0.00,,---,0.00,VWS V14.01,2013-03-08 01:11:00,
2013-03-07 20:12:00,49.1,15.7,30.03,SSE,158,7.6,7.6,26,0.00,,---,0.00,VWS V14.01,2013-03-08 01:12:00,
2013-03-07 20:15:00,49.1,15.7,30.03,SSE,158,7.6,7.6,26,0.00,,---,0.00,VWS V14.01,2013-03-08 01:15:00,
2013-03-07 20:16:00,49.1,15.7,30.03,SSE,158,7.6,7.6,26,0.00,,---,0.00,VWS V14.01,2013-03-08 01:16:00,
2013-03-07 20:17:00,49.1,15.7,30.03,SSE,158,7.6,7.6,26,0.00,,---,0.00,VWS V14.01,2013-03-08 01:17:00,
2013-03-07 20:20:00,48.9,15.6,30.03,SSE,158,7.6,7.6,26,0.00,,---,0.00,VWS V14.01,2013-03-08 01:20:00,
2013-03-07 20:21:00,48.9,15.6,30.03,SSE,158,7.6,7.6,26,0.00,,---,0.00,VWS V14.01,2013-03-08 01:21:00,
2013-03-07 20:22:00,48.9,16.4,30.03,SSE,158,7.6,7.6,27,0.00,,---,0.00,VWS V14.01,2013-03-08 01:22:00,
2013-03-07 20:25:00,48.7,16.3,30.03,SSE,158,7.6,7.6,27,0.00,,---,0.00,VWS V14.01,2013-03-08 01:25:00,
2013-03-07 20:26:00,48.7,16.3,30.03,SSE,158,7.6,7.6,27,0.00,,---,0.00,VWS V14.01,2013-03-08 01:26:00,
2013-03-07 20:27:00,48.7,16.3,30.03,SSE,158,7.6,7.6,27,0.00,,---,0.00,VWS V14.01,2013-03-08 01:27:00,
2013-03-07 20:30:00,48.7,16.3,30.03,SSE,158,7.6,7.6,27,0.00,,---,0.00,VWS V14.01,2013-03-08 01:30:00,
2013-03-07 20:32:00,48.6,16.1,30.03,SSE,158,7.6,7.6,27,0.00,,---,0.00,VWS V14.01,2013-03-08 01:32:00,
2013-03-07 20:35:00,48.4,16.0,30.03,SSE,158,7.6,7.6,27,0.00,,---,0.00,VWS V14.01,2013-03-08 01:35:00,
2013-03-07 20:37:00,48.4,16.0,30.03,SSE,158,7.6,7.6,27,0.00,,---,0.00,VWS V14.01,2013-03-08 01:37:00,
2013-03-07 20:40:00,48.0,15.6,30.03,SSE,158,7.6,7.6,27,0.00,,---,0.00,VWS V14.01,2013-03-08 01:40:00,
2013-03-07 20:42:00,48.0,15.6,30.03,SSE,158,7.6,7.6,27,0.00,,---,0.00,VWS V14.01,2013-03-08 01:42:00,
2013-03-07 20:46:00,47.7,15.3,30.03,SSE,158,7.6,7.6,27,0.00,,---,0.00,VWS V14.01,2013-03-08 01:46:00,
2013-03-07 20:47:00,47.7,15.3,30.03,SSE,158,7.6,7.6,27,0.00,,---,0.00,VWS V14.01,2013-03-08 01:47:00,
2013-03-07 20:48:00,47.7,15.3,30.03,SSE,158,7.6,7.6,27,0.00,,---,0.00,VWS V14.01,2013-03-08 01:48:00,
2013-03-07 20:50:00,47.5,16.0,30.03,SSE,158,7.6,7.6,28,0.00,,---,0.00,VWS V14.01,2013-03-08 01:50:00,
2013-03-07 20:52:00,47.5,16.0,30.03,SSE,158,7.6,7.6,28,0.00,,---,0.00,VWS V14.01,2013-03-08 01:52:00,
2013-03-07 20:53:00,47.5,16.0,30.03,SSE,158,7.6,7.6,28,0.00,,---,0.00,VWS V14.01,2013-03-08 01:53:00,
2013-03-07 20:56:00,47.3,15.9,30.06,SSE,158,7.6,7.6,28,0.00,,---,0.00,VWS V14.01,2013-03-08 01:56:00,
2013-03-07 20:57:00,47.3,15.9,30.06,SSE,158,7.6,7.6,28,0.00,,---,0.00,VWS V14.01,2013-03-08 01:57:00,
2013-03-07 20:58:00,47.3,15.9,30.06,SSE,158,7.6,7.6,28,0.00,,---,0.00,VWS V14.01,2013-03-08 01:58:00,
2013-03-07 21:01:00,47.3,15.9,30.06,SSE,158,7.6,7.6,28,0.00,,---,0.00,VWS V14.01,2013-03-08 02:01:00,
2013-03-07 21:02:00,47.1,15.7,30.06,SSE,158,7.6,7.6,28,0.00,,---,0.00,VWS V14.01,2013-03-08 02:02:00,
2013-03-07 21:03:00,47.1,16.5,30.06,SSE,158,7.6,7.6,29,0.00,,---,0.00,VWS V14.01,2013-03-08 02:03:00,
2013-03-07 21:06:00,47.1,15.7,30.06,SSE,158,7.6,7.6,28,0.00,,---,0.00,VWS V14.01,2013-03-08 02:06:00,
2013-03-07 21:07:00,46.9,15.6,30.06,SSE,158,7.6,7.6,28,0.00,,---,0.00,VWS V14.01,2013-03-08 02:07:00,
2013-03-07 21:08:00,46.9,15.6,30.06,SSE,158,7.6,7.6,28,0.00,,---,0.00,VWS V14.01,2013-03-08 02:08:00,
2013-03-07 21:11:00,46.9,16.4,30.06,SSE,158,7.6,7.6,29,0.00,,---,0.00,VWS V14.01,2013-03-08 02:11:00,
2013-03-07 21:12:00,46.8,16.2,30.06,SSE,158,7.6,7.6,29,0.00,,---,0.00,VWS V14.01,2013-03-08 02:12:00,
2013-03-07 21:13:00,46.8,16.2,30.06,SSE,158,7.6,7.6,29,0.00,,---,0.00,VWS V14.01,2013-03-08 02:13:00,
2013-03-07 21:16:00,46.6,16.0,30.06,SSE,158,7.6,7.6,29,0.00,,---,0.00,VWS V14.01,2013-03-08 02:16:00,
2013-03-07 21:17:00,46.6,16.0,30.06,SSE,158,7.6,7.6,29,0.00,,---,0.00,VWS V14.01,2013-03-08 02:17:00,
2013-03-07 21:18:00,46.6,16.0,30.06,SSE,158,7.6,7.6,29,0.00,,---,0.00,VWS V14.01,2013-03-08 02:18:00,
2013-03-07 21:21:00,46.4,15.9,30.06,SSE,158,7.6,7.6,29,0.00,,---,0.00,VWS V14.01,2013-03-08 02:21:00,
2013-03-07 21:22:00,46.4,15.9,30.06,SSE,158,7.6,7.6,29,0.00,,---,0.00,VWS V14.01,2013-03-08 02:22:00,
2013-03-07 21:23:00,46.4,15.9,30.06,SSE,158,7.6,7.6,29,0.00,,---,0.00,VWS V14.01,2013-03-08 02:23:00,
2013-03-07 21:26:00,46.2,16.5,30.06,SSE,158,7.6,7.6,30,0.00,,---,0.00,VWS V14.01,2013-03-08 02:26:00,
2013-03-07 21:27:00,46.2,16.5,30.06,SSE,158,7.6,7.6,30,0.00,,---,0.00,VWS V14.01,2013-03-08 02:27:00,
2013-03-07 21:28:00,46.2,16.5,30.06,SSE,158,7.6,7.6,30,0.00,,---,0.00,VWS V14.01,2013-03-08 02:28:00,
2013-03-07 21:31:00,46.0,16.4,30.06,SSE,158,7.6,7.6,30,0.00,,---,0.00,VWS V14.01,2013-03-08 02:31:00,
2013-03-07 21:32:00,46.0,16.4,30.06,SSE,158,7.6,7.6,30,0.00,,---,0.00,VWS V14.01,2013-03-08 02:32:00,
2013-03-07 21:33:00,46.0,16.4,30.06,SSE,158,7.6,7.6,30,0.00,,---,0.00,VWS V14.01,2013-03-08 02:33:00,
2013-03-07 21:36:00,46.0,16.4,30.06,SSE,158,7.6,7.6,30,0.00,,---,0.00,VWS V14.01,2013-03-08 02:36:00,
2013-03-07 21:38:00,46.0,16.4,30.06,SSE,158,7.6,7.6,30,0.00,,---,0.00,VWS V14.01,2013-03-08 02:38:00,
2013-03-07 21:41:00,45.9,16.2,30.06,SSE,158,7.6,7.6,30,0.00,,---,0.00,VWS V14.01,2013-03-08 02:41:00,
2013-03-07 21:43:00,45.9,16.2,30.06,SSE,158,7.6,7.6,30,0.00,,---,0.00,VWS V14.01,2013-03-08 02:43:00,
2013-03-07 21:47:00,45.9,16.2,30.06,SSE,158,7.6,7.6,30,0.00,,---,0.00,VWS V14.01,2013-03-08 02:47:00,
2013-03-07 21:48:00,45.9,16.2,30.06,SSE,158,7.6,7.6,30,0.00,,---,0.00,VWS V14.01,2013-03-08 02:48:00,
2013-03-07 21:52:00,45.9,16.2,30.06,SSE,158,7.6,7.6,30,0.00,,---,0.00,VWS V14.01,2013-03-08 02:52:00,
2013-03-07 21:53:00,45.7,16.0,30.06,SSE,158,7.6,7.6,30,0.00,,---,0.00,VWS V14.01,2013-03-08 02:53:00,
2013-03-07 21:57:00,45.7,16.0,30.06,SSE,158,7.6,7.6,30,0.00,,---,0.00,VWS V14.01,2013-03-08 02:57:00,
2013-03-07 21:58:00,45.7,16.0,30.06,SSE,158,7.6,7.6,30,0.00,,---,0.00,VWS V14.01,2013-03-08 02:58:00,
2013-03-07 22:02:00,45.7,16.0,30.06,SSE,158,7.6,7.6,30,0.00,,---,0.00,VWS V14.01,2013-03-08 03:02:00,
2013-03-07 22:03:00,45.5,15.9,30.06,SSE,158,7.6,7.6,30,0.00,,---,0.00,VWS V14.01,2013-03-08 03:03:00,
2013-03-07 22:07:00,45.5,15.9,30.06,SSE,158,7.6,7.6,30,0.00,,---,0.00,VWS V14.01,2013-03-08 03:07:00,
2013-03-07 22:08:00,45.3,15.7,30.06,SSE,158,7.6,7.6,30,0.00,,---,0.00,VWS V14.01,2013-03-08 03:08:00,
2013-03-07 22:09:00,45.3,15.7,30.06,SSE,158,7.6,7.6,30,0.00,,---,0.00,VWS V14.01,2013-03-08 03:09:00,
2013-03-07 22:12:00,45.1,15.6,30.06,SSE,158,7.6,7.6,30,0.00,,---,0.00,VWS V14.01,2013-03-08 03:12:00,
2013-03-07 22:13:00,45.1,15.6,30.06,SSE,158,7.6,7.6,30,0.00,,---,0.00,VWS V14.01,2013-03-08 03:13:00,
2013-03-07 22:14:00,45.1,15.6,30.06,SSE,158,7.6,7.6,30,0.00,,---,0.00,VWS V14.01,2013-03-08 03:14:00,
2013-03-07 22:17:00,45.0,15.4,30.06,SSE,158,7.6,7.6,30,0.00,,---,0.00,VWS V14.01,2013-03-08 03:17:00,
2013-03-07 22:18:00,45.0,15.4,30.06,SSE,158,7.6,7.6,30,0.00,,---,0.00,VWS V14.01,2013-03-08 03:18:00,
2013-03-07 22:19:00,45.0,15.4,30.06,SSE,158,7.6,7.6,30,0.00,,---,0.00,VWS V14.01,2013-03-08 03:19:00,
2013-03-07 22:22:00,45.0,15.4,30.06,SSE,158,7.6,7.6,30,0.00,,---,0.00,VWS V14.01,2013-03-08 03:22:00,
2013-03-07 22:23:00,44.8,16.0,30.06,SSE,158,7.6,7.6,31,0.00,,---,0.00,VWS V14.01,2013-03-08 03:23:00,
2013-03-07 22:24:00,44.8,16.0,30.06,SSE,158,7.6,7.6,31,0.00,,---,0.00,VWS V14.01,2013-03-08 03:24:00,
2013-03-07 22:27:00,44.8,16.0,30.06,SSE,158,7.6,7.6,31,0.00,,---,0.00,VWS V14.01,2013-03-08 03:27:00,
2013-03-07 22:29:00,44.6,15.9,30.06,SSE,158,7.6,7.6,31,0.00,,---,0.00,VWS V14.01,2013-03-08 03:29:00,
2013-03-07 22:32:00,44.4,15.7,30.06,SSE,158,7.6,7.6,31,0.00,,---,0.00,VWS V14.01,2013-03-08 03:32:00,
2013-03-07 22:34:00,44.4,15.7,30.06,SSE,158,7.6,7.6,31,0.00,,---,0.00,VWS V14.01,2013-03-08 03:34:00,
2013-03-07 22:37:00,44.2,15.5,30.06,SSE,158,7.6,7.6,31,0.00,,---,0.00,VWS V14.01,2013-03-08 03:37:00,
2013-03-07 22:39:00,44.1,15.4,30.06,SSE,158,7.6,7.6,31,0.00,,---,0.00,VWS V14.01,2013-03-08 03:39:00,
2013-03-07 22:42:00,44.1,15.4,30.06,SSE,158,7.6,7.6,31,0.00,,---,0.00,VWS V14.01,2013-03-08 03:42:00,
2013-03-07 22:44:00,43.9,15.9,30.06,SSE,158,7.6,7.6,32,0.00,,---,0.00,VWS V14.01,2013-03-08 03:44:00,
2013-03-07 22:47:00,43.7,15.1,30.06,SSE,158,7.6,7.6,31,0.00,,---,0.00,VWS V14.01,2013-03-08 03:47:00,
2013-03-07 22:49:00,43.7,15.1,30.06,SSE,158,7.6,7.6,31,0.00,,---,0.00,VWS V14.01,2013-03-08 03:49:00,
2013-03-07 22:52:00,43.7,15.8,30.06,SSE,158,7.6,7.6,32,0.00,,---,0.00,VWS V14.01,2013-03-08 03:52:00,
2013-03-07 22:54:00,43.7,15.8,30.06,SSE,158,7.6,7.6,32,0.00,,---,0.00,VWS V14.01,2013-03-08 03:54:00,
2013-03-07 22:57:00,43.5,16.3,30.06,SSE,158,7.6,7.6,33,0.00,,---,0.00,VWS V14.01,2013-03-08 03:57:00,
2013-03-07 22:59:00,43.3,14.8,30.06,SSE,158,7.6,7.6,31,0.00,,---,0.00,VWS V14.01,2013-03-08 03:59:00,
2013-03-07 23:02:00,43.3,15.5,30.06,SSE,158,7.6,7.6,32,0.00,,---,0.00,VWS V14.01,2013-03-08 04:02:00,
2013-03-07 23:04:00,43.3,15.5,30.06,SSE,158,7.6,7.6,32,0.00,,---,0.00,VWS V14.01,2013-03-08 04:04:00,
2013-03-07 23:07:00,43.3,15.5,30.06,SSE,158,7.6,7.6,32,0.00,,---,0.00,VWS V14.01,2013-03-08 04:07:00,
2013-03-07 23:09:00,43.2,15.3,30.03,SSE,158,7.6,7.6,32,0.00,,---,0.00,VWS V14.01,2013-03-08 04:09:00,
2013-03-07 23:12:00,43.0,15.9,30.03,SSE,158,7.6,7.6,33,0.00,,---,0.00,VWS V14.01,2013-03-08 04:12:00,
2013-03-07 23:14:00,43.0,15.9,30.03,SSE,158,7.6,7.6,33,0.00,,---,0.00,VWS V14.01,2013-03-08 04:14:00,
2013-03-07 23:17:00,42.8,15.7,30.03,SSE,158,7.6,7.6,33,0.00,,---,0.00,VWS V14.01,2013-03-08 04:17:00,
2013-03-07 23:19:00,42.8,15.7,30.03,SSE,158,7.6,7.6,33,0.00,,---,0.00,VWS V14.01,2013-03-08 04:19:00,
2013-03-07 23:22:00,42.8,16.4,30.03,SSE,158,7.6,7.6,34,0.00,,---,0.00,VWS V14.01,2013-03-08 04:22:00,
2013-03-07 23:24:00,42.6,16.2,30.03,SSE,158,7.6,7.6,34,0.00,,---,0.00,VWS V14.01,2013-03-08 04:24:00,
2013-03-07 23:25:00,42.6,16.2,30.03,SSE,158,7.6,7.6,34,0.00,,---,0.00,VWS V14.01,2013-03-08 04:25:00,
2013-03-07 23:27:00,42.6,16.9,30.03,SSE,158,7.6,7.6,35,0.00,,---,0.00,VWS V14.01,2013-03-08 04:27:00,
2013-03-07 23:29:00,42.6,16.2,30.03,SSE,158,7.6,7.6,34,0.00,,---,0.00,VWS V14.01,2013-03-08 04:29:00,
2013-03-07 23:30:00,42.6,16.2,30.03,SSE,158,7.6,7.6,34,0.00,,---,0.00,VWS V14.01,2013-03-08 04:30:00,
2013-03-07 23:33:00,42.6,16.9,30.03,SSE,158,7.6,7.6,35,0.00,,---,0.00,VWS V14.01,2013-03-08 04:33:00,
2013-03-07 23:34:00,42.8,17.1,30.03,SSE,158,7.6,7.6,35,0.00,,---,0.00,VWS V14.01,2013-03-08 04:34:00,
2013-03-07 23:35:00,42.8,17.1,30.03,SSE,158,7.6,7.6,35,0.00,,---,0.00,VWS V14.01,2013-03-08 04:35:00,
2013-03-07 23:38:00,42.8,17.1,30.03,SSE,158,7.6,7.6,35,0.00,,---,0.00,VWS V14.01,2013-03-08 04:38:00,
2013-03-07 23:39:00,42.8,17.7,30.06,SSE,158,7.6,7.6,36,0.00,,---,0.00,VWS V14.01,2013-03-08 04:39:00,
2013-03-07 23:40:00,42.8,17.7,30.06,SSE,158,7.6,7.6,36,0.00,,---,0.00,VWS V14.01,2013-03-08 04:40:00,
2013-03-07 23:43:00,42.8,17.7,30.06,SSE,158,7.6,7.6,36,0.00,,---,0.00,VWS V14.01,2013-03-08 04:43:00,
2013-03-07 23:44:00,42.8,17.7,30.06,SSE,158,7.6,7.6,36,0.00,,---,0.00,VWS V14.01,2013-03-08 04:44:00,
2013-03-07 23:46:00,42.8,17.7,30.06,SSE,158,7.6,7.6,36,0.00,,---,0.00,VWS V14.01,2013-03-08 04:46:00,
2013-03-07 23:48:00,43.0,17.9,30.06,SSE,158,7.6,7.6,36,0.00,,---,0.00,VWS V14.01,2013-03-08 04:48:00,
2013-03-07 23:49:00,43.0,17.9,30.06,SSE,158,7.6,7.6,36,0.00,,---,0.00,VWS V14.01,2013-03-08 04:49:00,
2013-03-07 23:51:00,43.0,17.2,30.06,SSE,158,7.6,7.6,35,0.00,,---,0.00,VWS V14.01,2013-03-08 04:51:00,
2013-03-07 23:53:00,43.3,17.5,30.06,SSE,158,7.6,7.6,35,0.00,,---,0.00,VWS V14.01,2013-03-08 04:53:00,
2013-03-07 23:54:00,43.3,17.5,30.06,SSE,158,7.6,7.6,35,0.00,,---,0.00,VWS V14.01,2013-03-08 04:54:00,
2013-03-07 23:56:00,43.2,17.4,30.06,SSE,158,7.6,7.6,35,0.00,,---,0.00,VWS V14.01,2013-03-08 04:56:00,
2013-03-07 23:58:00,43.3,17.5,30.06,SSE,158,7.6,7.6,35,0.00,,---,0.00,VWS V14.01,2013-03-08 04:58:00,
2013-03-07 23:59:00,43.3,17.5,30.06,SSE,158,7.6,7.6,35,0.00,,---,0.00,VWS V14.01,2013-03-08 04:59:00,